Time,TemperatureF,DewpointF,PressureIn,WindDirection,WindDirectionDegrees,WindSpeedMPH,WindSpeedGustMPH,Humidity,HourlyPrecipIn,Conditions,Clouds,dailyrainin,SoftwareType,DateUTC
2013-09-13 00:00:00,75.2,70.3,29.36,East,79,0.0,0.0,85,0.08,,,1.33,meteohub,2013-09-13 04:00:00,
2013-09-13 00:01:00,75.2,70.3,29.36,East,79,0.0,0.0,85,0.08,,,1.33,meteohub,2013-09-13 04:01:00,
2013-09-13 00:02:00,75.2,70.3,29.36,East,79,0.0,0.0,85,0.08,,,1.33,meteohub,2013-09-13 04:02:00,
2013-09-13 00:04:00,75.2,70.3,29.36,East,79,0.0,0.0,85,0.08,,,1.33,meteohub,2013-09-13 04:04:00,
2013-09-13 00:06:00,75.2,70.3,29.36,East,79,0.0,0.0,85,0.08,,,1.33,meteohub,2013-09-13 04:06:00,
2013-09-13 00:08:00,75.2,70.3,29.36,East,79,0.0,0.0,85,0.08,,,1.33,meteohub,2013-09-13 04:08:00,
2013-09-13 00:10:00,75.2,70.3,29.36,East,79,0.0,0.0,85,0.08,,,1.33,meteohub,2013-09-13 04:10:00,
2013-09-13 00:11:00,75.2,70.3,29.36,ENE,76,0.0,0.0,85,0.08,,,1.33,meteohub,2013-09-13 04:11:00,
2013-09-13 00:13:00,75.4,70.5,29.36,ENE,76,0.0,0.0,85,0.08,,,1.33,meteohub,2013-09-13 04:13:00,
2013-09-13 00:14:00,75.4,70.5,29.36,ENE,76,0.0,0.0,85,0.08,,,1.33,meteohub,2013-09-13 04:14:00,
2013-09-13 00:15:00,75.4,70.5,29.36,ENE,76,0.0,0.0,85,0.08,,,1.33,meteohub,2013-09-13 04:15:00,
2013-09-13 00:16:00,75.4,70.5,29.36,ENE,76,0.0,0.0,85,0.08,,,1.33,meteohub,2013-09-13 04:16:00,
2013-09-13 00:20:00,75.4,70.5,29.36,ENE,76,0.0,0.0,85,0.04,,,1.33,meteohub,2013-09-13 04:20:00,
2013-09-13 00:21:00,75.4,70.5,29.36,ENE,76,0.0,0.0,85,0.04,,,1.33,meteohub,2013-09-13 04:21:00,
2013-09-13 00:22:00,75.4,70.5,29.36,ENE,76,0.0,0.0,85,0.04,,,1.33,meteohub,2013-09-13 04:22:00,
2013-09-13 00:24:00,75.4,70.5,29.36,ENE,76,0.0,0.0,85,0.04,,,1.33,meteohub,2013-09-13 04:24:00,
2013-09-13 00:26:00,75.4,70.5,29.36,ENE,76,0.0,0.0,85,0.04,,,1.33,meteohub,2013-09-13 04:26:00,
2013-09-13 00:27:00,75.6,70.7,29.36,ENE,76,0.0,0.0,85,0.04,,,1.33,meteohub,2013-09-13 04:27:00,
2013-09-13 00:28:00,75.6,70.7,29.36,ENE,76,0.0,0.0,85,0.04,,,1.33,meteohub,2013-09-13 04:28:00,
2013-09-13 00:30:00,75.6,70.7,29.36,ENE,76,0.0,0.0,85,0.04,,,1.33,meteohub,2013-09-13 04:30:00,
2013-09-13 00:32:00,75.6,70.7,29.36,ENE,76,0.0,0.0,85,0.04,,,1.33,meteohub,2013-09-13 04:32:00,
2013-09-13 00:33:00,75.6,71.1,29.36,ENE,76,0.0,0.0,86,0.04,,,1.33,meteohub,2013-09-13 04:33:00,
2013-09-13 00:35:00,75.6,71.1,29.36,ENE,76,0.0,0.0,86,0.04,,,1.33,meteohub,2013-09-13 04:35:00,
2013-09-13 00:36:00,75.6,71.1,29.36,ENE,76,0.0,0.0,86,0.04,,,1.33,meteohub,2013-09-13 04:36:00,
2013-09-13 00:37:00,75.6,71.1,29.36,ENE,76,0.0,0.0,86,0.00,,,1.33,meteohub,2013-09-13 04:37:00,
2013-09-13 00:39:00,75.6,71.1,29.36,ENE,76,0.0,0.0,86,0.00,,,1.33,meteohub,2013-09-13 04:39:00,
2013-09-13 00:41:00,75.4,70.9,29.36,ENE,76,0.0,0.0,86,0.00,,,1.33,meteohub,2013-09-13 04:41:00,
2013-09-13 00:42:00,75.6,71.1,29.36,ENE,76,0.0,0.0,86,0.00,,,1.33,meteohub,2013-09-13 04:42:00,
2013-09-13 00:45:00,75.6,71.1,29.36,ENE,76,0.0,0.0,86,0.00,,,1.33,meteohub,2013-09-13 04:45:00,
2013-09-13 00:46:00,75.6,71.1,29.36,ENE,76,0.0,0.0,86,0.00,,,1.33,meteohub,2013-09-13 04:46:00,
2013-09-13 00:49:00,75.6,71.1,29.36,ENE,76,0.0,0.0,86,0.00,,,1.33,meteohub,2013-09-13 04:49:00,
2013-09-13 00:50:00,75.6,71.1,29.36,ENE,76,0.0,0.0,86,0.00,,,1.33,meteohub,2013-09-13 04:50:00,
2013-09-13 00:51:00,75.6,71.1,29.36,ENE,76,0.0,0.0,86,0.00,,,1.33,meteohub,2013-09-13 04:51:00,
2013-09-13 00:52:00,75.6,71.1,29.36,ENE,76,0.0,0.0,86,0.00,,,1.33,meteohub,2013-09-13 04:52:00,
2013-09-13 00:55:00,75.6,71.1,29.36,ENE,76,0.0,0.0,86,0.00,,,1.33,meteohub,2013-09-13 04:55:00,
2013-09-13 00:56:00,75.6,71.1,29.36,ENE,76,0.0,0.0,86,0.00,,,1.33,meteohub,2013-09-13 04:56:00,
2013-09-13 00:59:00,75.6,71.1,29.36,ENE,76,0.0,0.0,86,0.00,,,1.33,meteohub,2013-09-13 04:59:00,
2013-09-13 01:00:00,75.6,71.1,29.36,ENE,76,0.0,0.0,86,0.00,,,1.33,meteohub,2013-09-13 05:00:00,
2013-09-13 01:02:00,75.4,70.9,29.36,ENE,76,0.0,0.0,86,0.00,,,1.33,meteohub,2013-09-13 05:02:00,
2013-09-13 01:05:00,75.4,70.9,29.36,ENE,76,0.0,0.0,86,0.00,,,1.33,meteohub,2013-09-13 05:05:00,
2013-09-13 01:06:00,75.4,70.9,29.36,ENE,76,0.0,0.0,86,0.00,,,1.33,meteohub,2013-09-13 05:06:00,
2013-09-13 01:07:00,75.4,70.9,29.36,ENE,76,0.0,0.0,86,0.00,,,1.33,meteohub,2013-09-13 05:07:00,
2013-09-13 01:09:00,75.4,70.9,29.36,ENE,76,0.0,0.0,86,0.00,,,1.33,meteohub,2013-09-13 05:09:00,
2013-09-13 01:12:00,75.2,70.7,29.36,ENE,76,0.0,0.0,86,0.00,,,1.33,meteohub,2013-09-13 05:12:00,
2013-09-13 01:13:00,75.2,70.7,29.36,ENE,76,0.0,0.0,86,0.00,,,1.33,meteohub,2013-09-13 05:13:00,
2013-09-13 01:14:00,75.2,70.7,29.36,ENE,76,0.0,0.0,86,0.00,,,1.33,meteohub,2013-09-13 05:14:00,
2013-09-13 01:18:00,75.4,70.9,29.36,ENE,76,0.0,0.0,86,0.00,,,1.33,meteohub,2013-09-13 05:18:00,
2013-09-13 01:19:00,75.4,70.9,29.36,ENE,76,0.0,0.0,86,0.00,,,1.33,meteohub,2013-09-13 05:19:00,
2013-09-13 01:20:00,75.4,70.9,29.36,ENE,76,0.0,0.0,86,0.00,,,1.33,meteohub,2013-09-13 05:20:00,
2013-09-13 01:21:00,75.4,70.9,29.36,ENE,76,0.0,0.0,86,0.00,,,1.33,meteohub,2013-09-13 05:21:00,
2013-09-13 01:25:00,75.4,70.9,29.36,ENE,76,0.0,0.0,86,0.00,,,1.33,meteohub,2013-09-13 05:25:00,
2013-09-13 01:26:00,75.4,70.9,29.36,ENE,76,0.0,0.0,86,0.00,,,1.33,meteohub,2013-09-13 05:26:00,
2013-09-13 01:27:00,75.4,70.9,29.36,ENE,76,0.0,0.0,86,0.00,,,1.33,meteohub,2013-09-13 05:27:00,
2013-09-13 01:28:00,75.4,70.9,29.36,ENE,76,0.0,0.0,86,0.00,,,1.33,meteohub,2013-09-13 05:28:00,
2013-09-13 01:31:00,75.4,70.9,29.36,ENE,76,0.0,0.0,86,0.00,,,1.33,meteohub,2013-09-13 05:31:00,
2013-09-13 01:32:00,75.4,70.9,29.36,ENE,76,0.0,0.0,86,0.00,,,1.33,meteohub,2013-09-13 05:32:00,
2013-09-13 01:33:00,75.6,71.1,29.36,ENE,76,0.0,0.0,86,0.00,,,1.33,meteohub,2013-09-13 05:33:00,
2013-09-13 01:34:00,75.6,71.1,29.36,ENE,76,0.0,0.0,86,0.00,,,1.33,meteohub,2013-09-13 05:34:00,
2013-09-13 01:38:00,75.6,71.4,29.36,ENE,76,0.0,0.0,87,0.00,,,1.33,meteohub,2013-09-13 05:38:00,
2013-09-13 01:39:00,75.7,71.6,29.36,ENE,76,0.0,0.0,87,0.00,,,1.33,meteohub,2013-09-13 05:39:00,
2013-09-13 01:40:00,75.7,71.6,29.36,ENE,76,0.0,0.0,87,0.00,,,1.33,meteohub,2013-09-13 05:40:00,
2013-09-13 01:41:00,75.7,71.6,29.36,ENE,76,0.0,0.0,87,0.00,,,1.33,meteohub,2013-09-13 05:41:00,
2013-09-13 01:44:00,75.9,71.8,29.36,ENE,76,0.0,0.0,87,0.00,,,1.33,meteohub,2013-09-13 05:44:00,
2013-09-13 01:46:00,75.9,71.8,29.36,ENE,76,0.0,0.0,87,0.00,,,1.33,meteohub,2013-09-13 05:46:00,
2013-09-13 01:47:00,75.9,71.8,29.36,ENE,76,0.0,0.0,87,0.00,,,1.33,meteohub,2013-09-13 05:47:00,
2013-09-13 01:48:00,75.9,71.8,29.36,ENE,76,0.0,0.0,87,0.00,,,1.33,meteohub,2013-09-13 05:48:00,
2013-09-13 01:50:00,75.9,71.8,29.36,ENE,76,0.0,0.0,87,0.00,,,1.33,meteohub,2013-09-13 05:50:00,
2013-09-13 01:52:00,75.9,71.8,29.36,ENE,76,0.0,0.0,87,0.00,,,1.33,meteohub,2013-09-13 05:52:00,
2013-09-13 01:53:00,75.9,71.8,29.36,ENE,76,0.0,0.0,87,0.00,,,1.33,meteohub,2013-09-13 05:53:00,
2013-09-13 01:54:00,75.9,71.8,29.36,ENE,76,0.0,0.0,87,0.00,,,1.33,meteohub,2013-09-13 05:54:00,
2013-09-13 01:56:00,75.9,71.8,29.36,ENE,76,0.0,0.0,87,0.00,,,1.33,meteohub,2013-09-13 05:56:00,
2013-09-13 01:58:00,75.9,71.8,29.36,ENE,76,0.0,0.0,87,0.00,,,1.33,meteohub,2013-09-13 05:58:00,
2013-09-13 01:59:00,75.9,71.8,29.36,ENE,76,0.0,0.0,87,0.00,,,1.33,meteohub,2013-09-13 05:59:00,
2013-09-13 02:00:00,76.1,72.0,29.36,ENE,76,0.0,0.0,87,0.00,,,1.33,meteohub,2013-09-13 06:00:00,
2013-09-13 02:02:00,76.1,72.0,29.36,ENE,76,0.0,0.0,87,0.00,,,1.33,meteohub,2013-09-13 06:02:00,
2013-09-13 02:05:00,76.1,72.0,29.36,ENE,76,0.0,0.0,87,0.00,,,1.33,meteohub,2013-09-13 06:05:00,
2013-09-13 02:06:00,76.1,72.0,29.36,ENE,76,0.0,0.0,87,0.00,,,1.33,meteohub,2013-09-13 06:06:00,
2013-09-13 02:07:00,76.1,72.0,29.36,ENE,76,0.0,0.0,87,0.00,,,1.33,meteohub,2013-09-13 06:07:00,
2013-09-13 02:11:00,76.1,72.0,29.36,ENE,76,0.0,0.0,87,0.00,,,1.33,meteohub,2013-09-13 06:11:00,
2013-09-13 02:12:00,76.1,72.0,29.36,ENE,76,0.0,0.0,87,0.00,,,1.33,meteohub,2013-09-13 06:12:00,
2013-09-13 02:13:00,76.1,72.0,29.36,ENE,76,0.0,0.0,87,0.00,,,1.33,meteohub,2013-09-13 06:13:00,
2013-09-13 02:14:00,76.1,72.0,29.34,ENE,76,0.0,0.0,87,0.00,,,1.33,meteohub,2013-09-13 06:14:00,
2013-09-13 02:17:00,76.3,72.1,29.34,ENE,76,0.0,0.0,87,0.00,,,1.33,meteohub,2013-09-13 06:17:00,
2013-09-13 02:19:00,76.3,72.5,29.34,ENE,76,0.0,0.0,88,0.00,,,1.33,meteohub,2013-09-13 06:19:00,
2013-09-13 02:20:00,76.3,72.5,29.34,ENE,76,0.0,0.0,88,0.00,,,1.33,meteohub,2013-09-13 06:20:00,
2013-09-13 02:22:00,76.3,72.5,29.34,ENE,76,0.0,0.0,88,0.00,,,1.33,meteohub,2013-09-13 06:22:00,
2013-09-13 02:26:00,76.3,72.5,29.34,ENE,76,0.0,0.0,88,0.00,,,1.33,meteohub,2013-09-13 06:26:00,
2013-09-13 02:27:00,76.5,72.7,29.34,ENE,76,0.0,0.0,88,0.00,,,1.33,meteohub,2013-09-13 06:27:00,
2013-09-13 02:29:00,76.5,72.7,29.34,ENE,76,0.0,0.0,88,0.00,,,1.33,meteohub,2013-09-13 06:29:00,
2013-09-13 02:30:00,76.5,72.7,29.34,ENE,76,0.0,0.0,88,0.00,,,1.33,meteohub,2013-09-13 06:30:00,
2013-09-13 02:32:00,76.5,72.7,29.34,ENE,76,0.0,0.0,88,0.00,,,1.33,meteohub,2013-09-13 06:32:00,
2013-09-13 02:34:00,76.5,72.7,29.34,ENE,76,0.0,0.0,88,0.00,,,1.33,meteohub,2013-09-13 06:34:00,
2013-09-13 02:35:00,76.5,72.7,29.34,ENE,76,0.0,0.0,88,0.00,,,1.33,meteohub,2013-09-13 06:35:00,
2013-09-13 02:36:00,76.5,72.7,29.34,ENE,76,0.0,0.0,88,0.00,,,1.33,meteohub,2013-09-13 06:36:00,
2013-09-13 02:38:00,76.5,72.7,29.34,ENE,76,0.0,0.0,88,0.00,,,1.33,meteohub,2013-09-13 06:38:00,
2013-09-13 02:40:00,76.5,72.7,29.34,ENE,76,0.0,0.0,88,0.00,,,1.33,meteohub,2013-09-13 06:40:00,
2013-09-13 02:41:00,76.5,72.7,29.34,ENE,76,0.0,0.0,88,0.00,,,1.33,meteohub,2013-09-13 06:41:00,
2013-09-13 02:44:00,76.6,72.9,29.34,ENE,76,0.0,0.0,88,0.00,,,1.33,meteohub,2013-09-13 06:44:00,
2013-09-13 02:45:00,76.6,72.9,29.34,ENE,76,0.0,0.0,88,0.00,,,1.33,meteohub,2013-09-13 06:45:00,
2013-09-13 02:47:00,76.6,72.9,29.34,ENE,76,0.0,0.0,88,0.00,,,1.33,meteohub,2013-09-13 06:47:00,
2013-09-13 02:49:00,76.6,72.9,29.34,ENE,76,0.0,0.0,88,0.00,,,1.33,meteohub,2013-09-13 06:49:00,
2013-09-13 02:52:00,76.6,72.9,29.34,ENE,76,0.0,0.0,88,0.00,,,1.33,meteohub,2013-09-13 06:52:00,
2013-09-13 02:53:00,76.6,72.9,29.34,ENE,76,0.0,0.0,88,0.00,,,1.33,meteohub,2013-09-13 06:53:00,
2013-09-13 02:54:00,76.6,72.9,29.34,ENE,76,0.0,0.0,88,0.00,,,1.33,meteohub,2013-09-13 06:54:00,
2013-09-13 02:56:00,76.6,72.9,29.34,ENE,76,0.0,0.0,88,0.00,,,1.33,meteohub,2013-09-13 06:56:00,
2013-09-13 02:59:00,76.6,72.9,29.31,ENE,76,0.0,0.0,88,0.00,,,1.33,meteohub,2013-09-13 06:59:00,
2013-09-13 03:00:00,76.6,72.9,29.31,ENE,76,0.0,0.0,88,0.00,,,1.33,meteohub,2013-09-13 07:00:00,
2013-09-13 03:01:00,76.6,72.9,29.31,ENE,76,0.0,0.0,88,0.00,,,1.33,meteohub,2013-09-13 07:01:00,
2013-09-13 03:07:00,76.8,73.0,29.31,ENE,76,0.0,0.0,88,0.00,,,1.33,meteohub,2013-09-13 07:07:00,
2013-09-13 03:08:00,76.8,73.0,29.31,ENE,76,0.0,0.0,88,0.00,,,1.33,meteohub,2013-09-13 07:08:00,
2013-09-13 03:10:00,76.8,73.0,29.31,ENE,76,0.0,0.0,88,0.00,,,1.33,meteohub,2013-09-13 07:10:00,
2013-09-13 03:12:00,76.8,73.0,29.31,ENE,76,0.0,0.0,88,0.00,,,1.33,meteohub,2013-09-13 07:12:00,
2013-09-13 03:13:00,76.8,73.0,29.31,ENE,76,0.0,0.0,88,0.00,,,1.33,meteohub,2013-09-13 07:13:00,
2013-09-13 03:16:00,76.8,73.0,29.31,ENE,76,0.0,0.0,88,0.00,,,1.33,meteohub,2013-09-13 07:16:00,
2013-09-13 03:17:00,76.8,73.0,29.31,ENE,76,0.0,0.0,88,0.00,,,1.33,meteohub,2013-09-13 07:17:00,
2013-09-13 03:18:00,76.8,73.0,29.31,ENE,76,0.0,0.0,88,0.00,,,1.33,meteohub,2013-09-13 07:18:00,
2013-09-13 03:19:00,76.8,73.0,29.31,ENE,76,0.0,0.0,88,0.00,,,1.33,meteohub,2013-09-13 07:19:00,
2013-09-13 03:20:00,76.8,73.0,29.31,ENE,76,0.0,0.0,88,0.00,,,1.33,meteohub,2013-09-13 07:20:00,
2013-09-13 03:23:00,76.6,72.9,29.31,ENE,76,0.0,0.0,88,0.00,,,1.33,meteohub,2013-09-13 07:23:00,
2013-09-13 03:24:00,76.6,72.9,29.31,ENE,76,0.0,0.0,88,0.00,,,1.33,meteohub,2013-09-13 07:24:00,
2013-09-13 03:25:00,76.6,72.9,29.31,ENE,76,0.0,0.0,88,0.00,,,1.33,meteohub,2013-09-13 07:25:00,
2013-09-13 03:28:00,76.6,72.9,29.31,ENE,76,0.0,0.0,88,0.00,,,1.33,meteohub,2013-09-13 07:28:00,
2013-09-13 03:30:00,76.6,72.9,29.31,ENE,76,0.0,0.0,88,0.00,,,1.33,meteohub,2013-09-13 07:30:00,
2013-09-13 03:31:00,76.6,72.9,29.31,ENE,76,0.0,0.0,88,0.00,,,1.33,meteohub,2013-09-13 07:31:00,
2013-09-13 03:32:00,76.6,72.9,29.31,ENE,76,0.0,0.0,88,0.00,,,1.33,meteohub,2013-09-13 07:32:00,
2013-09-13 03:37:00,76.6,72.9,29.31,ENE,76,0.0,0.0,88,0.00,,,1.33,meteohub,2013-09-13 07:37:00,
2013-09-13 03:38:00,76.6,72.9,29.31,ENE,76,0.0,0.0,88,0.00,,,1.33,meteohub,2013-09-13 07:38:00,
2013-09-13 03:39:00,76.6,72.9,29.31,ENE,76,0.0,0.0,88,0.00,,,1.33,meteohub,2013-09-13 07:39:00,
2013-09-13 03:40:00,76.6,72.9,29.31,ENE,76,0.0,0.0,88,0.00,,,1.33,meteohub,2013-09-13 07:40:00,
2013-09-13 03:42:00,76.6,72.9,29.31,ENE,76,0.0,0.0,88,0.00,,,1.33,meteohub,2013-09-13 07:42:00,
2013-09-13 03:43:00,76.6,72.9,29.31,ENE,76,0.0,0.0,88,0.00,,,1.33,meteohub,2013-09-13 07:43:00,
2013-09-13 03:45:00,76.6,73.2,29.31,ENE,76,0.0,0.0,89,0.00,,,1.33,meteohub,2013-09-13 07:45:00,
2013-09-13 03:48:00,76.6,73.2,29.31,ENE,76,0.0,0.0,89,0.00,,,1.33,meteohub,2013-09-13 07:48:00,
2013-09-13 03:50:00,76.6,73.2,29.31,ENE,76,0.0,0.0,89,0.00,,,1.33,meteohub,2013-09-13 07:50:00,
2013-09-13 03:51:00,76.6,73.2,29.31,ENE,76,0.0,0.0,89,0.00,,,1.33,meteohub,2013-09-13 07:51:00,
2013-09-13 03:52:00,76.6,73.2,29.31,ENE,76,0.0,0.0,89,0.00,,,1.33,meteohub,2013-09-13 07:52:00,
2013-09-13 03:56:00,76.6,73.2,29.31,ENE,76,0.0,0.0,89,0.00,,,1.33,meteohub,2013-09-13 07:56:00,
2013-09-13 03:57:00,76.6,73.2,29.31,ENE,76,0.0,0.0,89,0.00,,,1.33,meteohub,2013-09-13 07:57:00,
2013-09-13 03:58:00,76.6,73.2,29.31,ENE,76,0.0,0.0,89,0.00,,,1.33,meteohub,2013-09-13 07:58:00,
2013-09-13 03:59:00,76.6,73.2,29.31,ENE,76,0.0,0.0,89,0.00,,,1.33,meteohub,2013-09-13 07:59:00,
2013-09-13 04:01:00,76.6,73.2,29.31,ENE,76,0.0,0.0,89,0.00,,,1.33,meteohub,2013-09-13 08:01:00,
2013-09-13 04:02:00,76.6,73.2,29.31,ENE,76,0.0,0.0,89,0.00,,,1.33,meteohub,2013-09-13 08:02:00,
2013-09-13 04:05:00,76.6,73.2,29.31,ENE,76,0.0,0.0,89,0.00,,,1.33,meteohub,2013-09-13 08:05:00,
2013-09-13 04:06:00,76.6,73.2,29.31,ENE,76,0.0,0.0,89,0.00,,,1.33,meteohub,2013-09-13 08:06:00,
2013-09-13 04:08:00,76.6,73.2,29.31,ENE,76,0.0,0.0,89,0.00,,,1.33,meteohub,2013-09-13 08:08:00,
2013-09-13 04:10:00,76.6,73.2,29.31,ENE,76,0.0,0.0,89,0.00,,,1.33,meteohub,2013-09-13 08:10:00,
2013-09-13 04:12:00,76.6,73.2,29.31,ENE,76,0.0,0.0,89,0.00,,,1.33,meteohub,2013-09-13 08:12:00,
2013-09-13 04:13:00,76.6,73.2,29.31,ENE,76,0.0,0.0,89,0.00,,,1.33,meteohub,2013-09-13 08:13:00,
2013-09-13 04:14:00,76.6,73.2,29.31,ENE,76,0.0,0.0,89,0.00,,,1.33,meteohub,2013-09-13 08:14:00,
2013-09-13 04:16:00,76.6,73.2,29.31,ENE,76,0.0,0.0,89,0.00,,,1.33,meteohub,2013-09-13 08:16:00,
2013-09-13 04:18:00,76.6,73.2,29.31,ENE,76,0.0,0.0,89,0.00,,,1.33,meteohub,2013-09-13 08:18:00,
2013-09-13 04:20:00,76.6,73.2,29.31,ENE,76,0.0,0.0,89,0.00,,,1.33,meteohub,2013-09-13 08:20:00,
2013-09-13 04:21:00,76.6,73.2,29.31,ENE,76,0.0,0.0,89,0.00,,,1.33,meteohub,2013-09-13 08:21:00,
2013-09-13 04:22:00,76.6,73.2,29.31,ENE,76,0.0,0.0,89,0.00,,,1.33,meteohub,2013-09-13 08:22:00,
2013-09-13 04:24:00,76.6,73.2,29.31,ENE,76,0.0,0.0,89,0.00,,,1.33,meteohub,2013-09-13 08:24:00,
2013-09-13 04:25:00,76.6,73.2,29.31,ENE,76,0.0,0.0,89,0.00,,,1.33,meteohub,2013-09-13 08:25:00,
2013-09-13 04:26:00,76.6,73.2,29.31,ENE,76,0.0,0.0,89,0.00,,,1.33,meteohub,2013-09-13 08:26:00,
2013-09-13 04:27:00,76.6,73.2,29.31,ENE,76,0.0,0.0,89,0.00,,,1.33,meteohub,2013-09-13 08:27:00,
2013-09-13 04:29:00,76.6,73.2,29.31,ENE,76,0.0,0.0,89,0.00,,,1.33,meteohub,2013-09-13 08:29:00,
2013-09-13 04:30:00,76.6,73.2,29.31,ENE,76,0.0,0.0,89,0.00,,,1.33,meteohub,2013-09-13 08:30:00,
2013-09-13 04:31:00,76.6,73.2,29.31,ENE,76,0.0,0.0,89,0.00,,,1.33,meteohub,2013-09-13 08:31:00,
2013-09-13 04:32:00,76.6,73.2,29.31,ENE,76,0.0,0.0,89,0.00,,,1.33,meteohub,2013-09-13 08:32:00,
2013-09-13 04:34:00,76.6,73.2,29.31,ENE,76,0.0,0.0,89,0.00,,,1.33,meteohub,2013-09-13 08:34:00,
2013-09-13 04:36:00,76.6,73.2,29.31,ENE,76,0.0,0.0,89,0.00,,,1.33,meteohub,2013-09-13 08:36:00,
2013-09-13 04:38:00,76.6,73.2,29.31,ENE,76,0.0,0.0,89,0.00,,,1.33,meteohub,2013-09-13 08:38:00,
2013-09-13 04:39:00,76.6,73.2,29.31,ENE,76,0.0,0.0,89,0.00,,,1.33,meteohub,2013-09-13 08:39:00,
2013-09-13 04:42:00,76.6,73.2,29.31,ENE,76,0.0,0.0,89,0.00,,,1.33,meteohub,2013-09-13 08:42:00,
2013-09-13 04:44:00,76.6,73.2,29.31,ENE,76,0.0,0.0,89,0.00,,,1.33,meteohub,2013-09-13 08:44:00,
2013-09-13 04:45:00,76.6,73.2,29.31,ENE,76,0.0,0.0,89,0.00,,,1.33,meteohub,2013-09-13 08:45:00,
2013-09-13 04:47:00,76.6,73.2,29.31,ENE,76,0.0,0.0,89,0.00,,,1.33,meteohub,2013-09-13 08:47:00,
2013-09-13 04:49:00,76.6,73.2,29.31,ENE,76,0.0,0.0,89,0.00,,,1.33,meteohub,2013-09-13 08:49:00,
2013-09-13 04:51:00,76.6,73.2,29.31,ENE,76,0.0,0.0,89,0.00,,,1.33,meteohub,2013-09-13 08:51:00,
2013-09-13 04:53:00,76.6,73.2,29.31,ENE,76,0.0,0.0,89,0.00,,,1.33,meteohub,2013-09-13 08:53:00,
2013-09-13 04:56:00,76.6,73.2,29.31,ENE,76,0.0,0.0,89,0.00,,,1.33,meteohub,2013-09-13 08:56:00,
2013-09-13 04:57:00,76.6,73.2,29.31,ENE,76,0.0,0.0,89,0.00,,,1.33,meteohub,2013-09-13 08:57:00,
2013-09-13 04:58:00,76.6,73.2,29.31,ENE,76,0.0,0.0,89,0.00,,,1.33,meteohub,2013-09-13 08:58:00,
2013-09-13 04:59:00,76.6,73.2,29.31,ENE,76,0.0,0.0,89,0.00,,,1.33,meteohub,2013-09-13 08:59:00,
2013-09-13 05:02:00,76.6,73.2,29.31,ENE,76,0.0,0.0,89,0.00,,,1.33,meteohub,2013-09-13 09:02:00,
2013-09-13 05:03:00,76.6,73.2,29.31,ENE,76,0.0,0.0,89,0.00,,,1.33,meteohub,2013-09-13 09:03:00,
2013-09-13 05:04:00,76.6,73.2,29.31,ENE,76,0.0,0.0,89,0.00,,,1.33,meteohub,2013-09-13 09:04:00,
2013-09-13 05:06:00,76.6,73.2,29.31,ENE,76,0.0,0.0,89,0.00,,,1.33,meteohub,2013-09-13 09:06:00,
2013-09-13 05:07:00,76.6,73.2,29.31,ENE,76,0.0,0.0,89,0.00,,,1.33,meteohub,2013-09-13 09:07:00,
2013-09-13 05:10:00,76.6,73.2,29.31,ENE,76,0.0,0.0,89,0.00,,,1.33,meteohub,2013-09-13 09:10:00,
2013-09-13 05:11:00,76.6,73.2,29.31,ENE,76,0.0,0.0,89,0.00,,,1.33,meteohub,2013-09-13 09:11:00,
2013-09-13 05:14:00,76.6,73.2,29.31,ENE,76,0.0,0.0,89,0.00,,,1.33,meteohub,2013-09-13 09:14:00,
2013-09-13 05:16:00,76.6,73.2,29.31,ENE,76,0.0,0.0,89,0.00,,,1.33,meteohub,2013-09-13 09:16:00,
2013-09-13 05:18:00,76.6,73.2,29.31,ENE,76,0.0,0.0,89,0.00,,,1.33,meteohub,2013-09-13 09:18:00,
2013-09-13 05:20:00,76.6,73.2,29.31,ENE,76,0.0,0.0,89,0.00,,,1.33,meteohub,2013-09-13 09:20:00,
2013-09-13 05:21:00,76.6,73.2,29.31,ENE,76,0.0,0.0,89,0.00,,,1.33,meteohub,2013-09-13 09:21:00,
2013-09-13 05:23:00,76.6,73.2,29.31,ENE,76,0.0,0.0,89,0.00,,,1.33,meteohub,2013-09-13 09:23:00,
2013-09-13 05:26:00,76.6,73.2,29.31,ENE,76,0.0,0.0,89,0.00,,,1.33,meteohub,2013-09-13 09:26:00,
2013-09-13 05:27:00,76.6,73.2,29.31,ENE,76,0.0,0.0,89,0.00,,,1.33,meteohub,2013-09-13 09:27:00,
2013-09-13 05:28:00,76.6,73.2,29.31,ENE,76,0.0,0.0,89,0.00,,,1.33,meteohub,2013-09-13 09:28:00,
2013-09-13 05:29:00,76.6,73.2,29.31,ENE,76,0.0,0.0,89,0.00,,,1.33,meteohub,2013-09-13 09:29:00,
2013-09-13 05:34:00,76.6,73.2,29.31,ENE,76,0.0,0.0,89,0.00,,,1.33,meteohub,2013-09-13 09:34:00,
2013-09-13 05:35:00,76.6,73.2,29.31,ENE,76,0.0,0.0,89,0.00,,,1.33,meteohub,2013-09-13 09:35:00,
2013-09-13 05:36:00,76.6,73.2,29.31,ENE,76,0.0,0.0,89,0.00,,,1.33,meteohub,2013-09-13 09:36:00,
2013-09-13 05:37:00,76.6,73.2,29.31,ENE,76,0.0,0.0,89,0.00,,,1.33,meteohub,2013-09-13 09:37:00,
2013-09-13 05:38:00,76.6,73.2,29.31,ENE,76,0.0,0.0,89,0.00,,,1.33,meteohub,2013-09-13 09:38:00,
2013-09-13 05:40:00,76.6,73.2,29.31,ENE,76,0.0,0.0,89,0.00,,,1.33,meteohub,2013-09-13 09:40:00,
2013-09-13 05:41:00,76.6,73.2,29.31,ENE,76,0.0,0.0,89,0.00,,,1.33,meteohub,2013-09-13 09:41:00,
2013-09-13 05:42:00,76.6,73.2,29.31,ENE,76,0.0,0.0,89,0.00,,,1.33,meteohub,2013-09-13 09:42:00,
2013-09-13 05:43:00,76.6,73.2,29.31,ENE,76,0.0,0.0,89,0.00,,,1.33,meteohub,2013-09-13 09:43:00,
2013-09-13 05:47:00,76.6,73.2,29.31,ENE,76,0.0,0.0,89,0.00,,,1.33,meteohub,2013-09-13 09:47:00,
2013-09-13 05:48:00,76.6,73.2,29.31,ENE,76,0.0,0.0,89,0.00,,,1.33,meteohub,2013-09-13 09:48:00,
2013-09-13 05:50:00,77.0,73.6,29.31,ENE,76,0.0,0.0,89,0.00,,,1.33,meteohub,2013-09-13 09:50:00,
2013-09-13 05:51:00,77.0,73.6,29.31,ENE,76,0.0,0.0,89,0.00,,,1.33,meteohub,2013-09-13 09:51:00,
2013-09-13 05:53:00,77.0,73.6,29.31,ENE,76,0.0,0.0,89,0.00,,,1.33,meteohub,2013-09-13 09:53:00,
2013-09-13 05:55:00,76.8,73.4,29.31,ENE,76,0.0,0.0,89,0.00,,,1.33,meteohub,2013-09-13 09:55:00,
2013-09-13 05:59:00,76.8,73.4,29.31,ENE,76,0.0,0.0,89,0.00,,,1.33,meteohub,2013-09-13 09:59:00,
2013-09-13 06:01:00,76.8,73.4,29.31,ENE,76,0.0,0.0,89,0.00,,,1.33,meteohub,2013-09-13 10:01:00,
2013-09-13 06:02:00,76.8,73.4,29.31,ENE,76,0.0,0.0,89,0.00,,,1.33,meteohub,2013-09-13 10:02:00,
2013-09-13 06:04:00,76.8,73.4,29.31,ENE,76,0.0,0.0,89,0.00,,,1.33,meteohub,2013-09-13 10:04:00,
2013-09-13 06:05:00,76.8,73.4,29.31,ENE,76,0.0,0.0,89,0.00,,,1.33,meteohub,2013-09-13 10:05:00,
2013-09-13 06:06:00,76.8,73.4,29.31,ENE,76,0.0,0.0,89,0.00,,,1.33,meteohub,2013-09-13 10:06:00,
2013-09-13 06:09:00,76.8,73.4,29.31,ENE,76,0.0,0.0,89,0.00,,,1.33,meteohub,2013-09-13 10:09:00,
2013-09-13 06:10:00,76.8,73.4,29.31,ENE,76,0.0,0.0,89,0.00,,,1.33,meteohub,2013-09-13 10:10:00,
2013-09-13 06:11:00,76.8,73.4,29.31,ENE,76,0.0,0.0,89,0.00,,,1.33,meteohub,2013-09-13 10:11:00,
2013-09-13 06:12:00,76.8,73.4,29.31,ENE,76,0.0,0.0,89,0.00,,,1.33,meteohub,2013-09-13 10:12:00,
2013-09-13 06:15:00,76.8,73.4,29.31,ENE,76,0.0,0.0,89,0.00,,,1.33,meteohub,2013-09-13 10:15:00,
2013-09-13 06:16:00,76.8,73.4,29.31,ENE,76,0.0,0.0,89,0.00,,,1.33,meteohub,2013-09-13 10:16:00,
2013-09-13 06:17:00,76.8,73.4,29.31,ENE,76,0.0,0.0,89,0.00,,,1.33,meteohub,2013-09-13 10:17:00,
2013-09-13 06:19:00,76.8,73.4,29.31,ENE,76,0.0,0.0,89,0.00,,,1.33,meteohub,2013-09-13 10:19:00,
2013-09-13 06:20:00,76.8,73.4,29.31,ENE,76,0.0,0.0,89,0.00,,,1.33,meteohub,2013-09-13 10:20:00,
2013-09-13 06:21:00,76.8,73.4,29.31,ENE,76,0.0,0.0,89,0.00,,,1.33,meteohub,2013-09-13 10:21:00,
2013-09-13 06:25:00,76.6,73.2,29.31,ENE,76,0.0,0.0,89,0.00,,,1.33,meteohub,2013-09-13 10:25:00,
2013-09-13 06:26:00,76.6,73.2,29.31,ENE,76,0.0,0.0,89,0.00,,,1.33,meteohub,2013-09-13 10:26:00,
2013-09-13 06:27:00,76.6,73.2,29.31,ENE,76,0.0,0.0,89,0.00,,,1.33,meteohub,2013-09-13 10:27:00,
2013-09-13 06:29:00,76.6,73.2,29.34,ENE,76,0.0,0.0,89,0.00,,,1.33,meteohub,2013-09-13 10:29:00,
2013-09-13 06:30:00,76.6,73.2,29.34,ENE,76,0.0,0.0,89,0.00,,,1.33,meteohub,2013-09-13 10:30:00,
2013-09-13 06:33:00,76.6,73.2,29.34,ENE,76,0.0,0.0,89,0.00,,,1.33,meteohub,2013-09-13 10:33:00,
2013-09-13 06:35:00,76.6,73.2,29.34,ENE,76,0.0,0.0,89,0.00,,,1.33,meteohub,2013-09-13 10:35:00,
2013-09-13 06:36:00,76.6,73.2,29.34,ENE,76,0.0,0.0,89,0.00,,,1.33,meteohub,2013-09-13 10:36:00,
2013-09-13 06:38:00,76.6,73.2,29.34,ENE,76,0.0,0.0,89,0.00,,,1.33,meteohub,2013-09-13 10:38:00,
2013-09-13 06:39:00,76.6,73.2,29.34,ENE,76,0.0,0.0,89,0.00,,,1.33,meteohub,2013-09-13 10:39:00,
2013-09-13 06:41:00,76.6,73.2,29.34,ENE,76,0.0,0.0,89,0.00,,,1.33,meteohub,2013-09-13 10:41:00,
2013-09-13 06:42:00,76.6,73.2,29.34,ENE,76,0.0,0.0,89,0.00,,,1.33,meteohub,2013-09-13 10:42:00,
2013-09-13 06:44:00,76.6,73.2,29.34,ENE,76,0.0,0.0,89,0.00,,,1.33,meteohub,2013-09-13 10:44:00,
2013-09-13 06:45:00,76.6,73.2,29.34,ENE,76,0.0,0.0,89,0.00,,,1.33,meteohub,2013-09-13 10:45:00,
2013-09-13 06:48:00,76.6,73.4,29.34,ENE,76,0.0,0.0,90,0.00,,,1.33,meteohub,2013-09-13 10:48:00,
2013-09-13 06:49:00,76.6,73.4,29.34,ENE,76,0.0,0.0,90,0.00,,,1.33,meteohub,2013-09-13 10:49:00,
2013-09-13 06:53:00,76.6,73.4,29.34,ENE,76,0.0,0.0,90,0.00,,,1.33,meteohub,2013-09-13 10:53:00,
2013-09-13 06:54:00,76.6,73.4,29.34,ENE,76,0.0,0.0,90,0.00,,,1.33,meteohub,2013-09-13 10:54:00,
2013-09-13 06:58:00,76.6,73.4,29.34,ENE,76,0.0,0.0,90,0.00,,,1.33,meteohub,2013-09-13 10:58:00,
2013-09-13 06:59:00,76.6,73.4,29.34,ENE,76,0.0,0.0,90,0.00,,,1.33,meteohub,2013-09-13 10:59:00,
2013-09-13 07:01:00,76.6,73.4,29.34,ENE,76,0.0,0.0,90,0.00,,,1.37,meteohub,2013-09-13 11:01:00,
2013-09-13 07:03:00,76.6,73.4,29.34,ENE,76,0.0,0.0,90,0.00,,,1.37,meteohub,2013-09-13 11:03:00,
2013-09-13 07:04:00,76.6,73.4,29.34,ENE,76,0.0,0.0,90,0.04,,,1.37,meteohub,2013-09-13 11:04:00,
2013-09-13 07:06:00,76.6,73.4,29.34,ENE,76,0.0,0.0,90,0.04,,,1.37,meteohub,2013-09-13 11:06:00,
2013-09-13 07:07:00,76.6,73.4,29.34,ENE,76,0.0,0.0,90,0.04,,,1.37,meteohub,2013-09-13 11:07:00,
2013-09-13 07:09:00,76.6,73.4,29.34,ENE,76,0.0,0.0,90,0.04,,,1.37,meteohub,2013-09-13 11:09:00,
2013-09-13 07:11:00,76.6,73.4,29.34,ENE,76,0.0,0.0,90,0.04,,,1.37,meteohub,2013-09-13 11:11:00,
2013-09-13 07:14:00,76.6,73.4,29.31,ENE,76,0.0,0.0,90,0.04,,,1.37,meteohub,2013-09-13 11:14:00,
2013-09-13 07:15:00,76.6,73.4,29.31,ENE,76,0.0,0.0,90,0.04,,,1.37,meteohub,2013-09-13 11:15:00,
2013-09-13 07:16:00,76.6,73.4,29.31,ENE,76,0.0,0.0,90,0.04,,,1.37,meteohub,2013-09-13 11:16:00,
2013-09-13 07:17:00,76.6,73.4,29.31,ENE,76,0.0,0.0,90,0.04,,,1.37,meteohub,2013-09-13 11:17:00,
2013-09-13 07:18:00,76.6,73.4,29.31,ENE,76,0.0,0.0,90,0.04,,,1.37,meteohub,2013-09-13 11:18:00,
2013-09-13 07:21:00,76.6,73.4,29.31,ENE,76,0.0,0.0,90,0.04,,,1.37,meteohub,2013-09-13 11:21:00,
2013-09-13 07:22:00,76.6,73.4,29.31,ENE,76,0.0,0.0,90,0.04,,,1.37,meteohub,2013-09-13 11:22:00,
2013-09-13 07:23:00,76.6,73.4,29.31,ENE,76,0.0,0.0,90,0.04,,,1.37,meteohub,2013-09-13 11:23:00,
2013-09-13 07:24:00,76.6,73.4,29.31,ENE,76,0.0,0.0,90,0.04,,,1.37,meteohub,2013-09-13 11:24:00,
2013-09-13 07:26:00,76.6,73.4,29.31,ENE,76,0.0,0.0,90,0.04,,,1.37,meteohub,2013-09-13 11:26:00,
2013-09-13 07:27:00,76.6,73.4,29.31,ENE,76,0.0,0.0,90,0.04,,,1.37,meteohub,2013-09-13 11:27:00,
2013-09-13 07:28:00,76.6,73.4,29.31,ENE,76,0.0,0.0,90,0.04,,,1.37,meteohub,2013-09-13 11:28:00,
2013-09-13 07:30:00,76.6,73.4,29.34,ENE,76,0.0,0.0,90,0.04,,,1.37,meteohub,2013-09-13 11:30:00,
2013-09-13 07:31:00,76.6,73.4,29.34,ENE,76,0.0,0.0,90,0.04,,,1.37,meteohub,2013-09-13 11:31:00,
2013-09-13 07:33:00,76.6,73.4,29.34,ENE,76,0.0,0.0,90,0.04,,,1.37,meteohub,2013-09-13 11:33:00,
2013-09-13 07:35:00,76.5,73.2,29.34,ENE,76,0.0,0.0,90,0.04,,,1.37,meteohub,2013-09-13 11:35:00,
2013-09-13 07:37:00,76.5,73.2,29.34,ENE,76,0.0,0.0,90,0.04,,,1.37,meteohub,2013-09-13 11:37:00,
2013-09-13 07:39:00,76.5,73.2,29.34,ENE,76,0.0,0.0,90,0.04,,,1.37,meteohub,2013-09-13 11:39:00,
2013-09-13 07:41:00,76.5,73.2,29.34,ENE,76,0.0,0.0,90,0.04,,,1.37,meteohub,2013-09-13 11:41:00,
2013-09-13 07:46:00,76.6,73.4,29.31,ENE,76,0.0,0.0,90,0.04,,,1.37,meteohub,2013-09-13 11:46:00,
2013-09-13 07:48:00,76.6,73.4,29.31,ENE,76,0.0,0.0,90,0.04,,,1.37,meteohub,2013-09-13 11:48:00,
2013-09-13 07:49:00,76.6,73.4,29.31,ENE,76,0.0,0.0,90,0.04,,,1.37,meteohub,2013-09-13 11:49:00,
2013-09-13 07:50:00,76.6,73.4,29.31,ENE,76,0.0,0.0,90,0.04,,,1.37,meteohub,2013-09-13 11:50:00,
2013-09-13 07:51:00,76.6,73.4,29.31,ENE,76,0.0,0.0,90,0.04,,,1.37,meteohub,2013-09-13 11:51:00,
2013-09-13 07:53:00,76.8,73.6,29.31,ENE,76,0.0,0.0,90,0.04,,,1.37,meteohub,2013-09-13 11:53:00,
2013-09-13 07:55:00,76.8,73.6,29.31,ENE,76,0.0,0.0,90,0.04,,,1.37,meteohub,2013-09-13 11:55:00,
2013-09-13 07:56:00,76.8,73.6,29.31,ENE,76,0.0,0.0,90,0.04,,,1.37,meteohub,2013-09-13 11:56:00,
2013-09-13 07:59:00,76.8,73.6,29.31,ENE,76,0.0,0.0,90,0.04,,,1.37,meteohub,2013-09-13 11:59:00,
2013-09-13 08:01:00,76.8,73.6,29.31,ENE,76,0.0,0.0,90,0.04,,,1.37,meteohub,2013-09-13 12:01:00,
2013-09-13 08:02:00,76.8,73.6,29.31,ENE,76,0.0,0.0,90,0.04,,,1.37,meteohub,2013-09-13 12:02:00,
2013-09-13 08:06:00,77.0,73.8,29.31,ENE,76,0.0,0.0,90,0.00,,,1.37,meteohub,2013-09-13 12:06:00,
2013-09-13 08:08:00,77.0,73.8,29.31,ENE,76,0.0,0.0,90,0.00,,,1.37,meteohub,2013-09-13 12:08:00,
2013-09-13 08:09:00,77.0,73.8,29.31,ENE,76,0.0,0.0,90,0.00,,,1.37,meteohub,2013-09-13 12:09:00,
2013-09-13 08:11:00,77.0,73.8,29.31,ENE,76,0.0,0.0,90,0.00,,,1.37,meteohub,2013-09-13 12:11:00,
2013-09-13 08:12:00,77.0,73.8,29.31,ENE,76,0.0,0.0,90,0.00,,,1.37,meteohub,2013-09-13 12:12:00,
2013-09-13 08:14:00,77.0,73.8,29.31,ENE,76,0.0,0.0,90,0.00,,,1.37,meteohub,2013-09-13 12:14:00,
2013-09-13 08:15:00,77.2,73.9,29.31,ENE,76,0.0,0.0,90,0.00,,,1.37,meteohub,2013-09-13 12:15:00,
2013-09-13 08:16:00,77.2,73.9,29.31,ENE,76,0.0,0.0,90,0.00,,,1.37,meteohub,2013-09-13 12:16:00,
2013-09-13 08:17:00,77.2,73.9,29.31,ENE,76,0.0,0.0,90,0.00,,,1.37,meteohub,2013-09-13 12:17:00,
2013-09-13 08:22:00,77.2,73.9,29.31,ENE,76,0.0,0.0,90,0.00,,,1.37,meteohub,2013-09-13 12:22:00,
2013-09-13 08:23:00,77.2,73.9,29.31,ENE,76,0.0,0.0,90,0.00,,,1.37,meteohub,2013-09-13 12:23:00,
2013-09-13 08:25:00,77.2,73.9,29.31,ENE,76,0.0,0.0,90,0.00,,,1.37,meteohub,2013-09-13 12:25:00,
2013-09-13 08:27:00,77.4,74.1,29.31,ENE,76,0.0,0.0,90,0.00,,,1.37,meteohub,2013-09-13 12:27:00,
2013-09-13 08:28:00,77.4,74.1,29.31,ENE,76,0.0,0.0,90,0.00,,,1.37,meteohub,2013-09-13 12:28:00,
2013-09-13 08:29:00,77.4,74.1,29.31,ENE,76,0.0,0.0,90,0.00,,,1.37,meteohub,2013-09-13 12:29:00,
2013-09-13 08:34:00,77.5,74.3,29.31,ENE,76,0.0,0.0,90,0.00,,,1.37,meteohub,2013-09-13 12:34:00,
2013-09-13 08:35:00,77.5,74.3,29.31,ENE,76,0.0,0.0,90,0.00,,,1.37,meteohub,2013-09-13 12:35:00,
2013-09-13 08:36:00,77.5,74.3,29.31,ENE,76,0.0,0.0,90,0.00,,,1.37,meteohub,2013-09-13 12:36:00,
2013-09-13 08:38:00,77.5,74.3,29.31,ENE,76,0.0,0.0,90,0.00,,,1.37,meteohub,2013-09-13 12:38:00,
2013-09-13 08:39:00,77.5,74.3,29.31,ENE,76,0.0,0.0,90,0.00,,,1.37,meteohub,2013-09-13 12:39:00,
2013-09-13 08:41:00,77.5,74.3,29.31,ENE,76,0.0,0.0,90,0.00,,,1.37,meteohub,2013-09-13 12:41:00,
2013-09-13 08:42:00,77.5,74.3,29.31,ENE,76,0.0,0.0,90,0.00,,,1.37,meteohub,2013-09-13 12:42:00,
2013-09-13 08:44:00,77.5,74.3,29.31,ENE,76,0.0,0.0,90,0.00,,,1.37,meteohub,2013-09-13 12:44:00,
2013-09-13 08:45:00,77.5,74.3,29.31,ENE,76,0.0,0.0,90,0.00,,,1.37,meteohub,2013-09-13 12:45:00,
2013-09-13 08:48:00,77.5,74.3,29.31,ENE,76,0.0,0.0,90,0.00,,,1.37,meteohub,2013-09-13 12:48:00,
2013-09-13 08:50:00,77.7,74.5,29.31,ENE,76,0.0,0.0,90,0.00,,,1.37,meteohub,2013-09-13 12:50:00,
2013-09-13 08:51:00,77.7,74.5,29.31,ENE,76,0.0,0.0,90,0.00,,,1.37,meteohub,2013-09-13 12:51:00,
2013-09-13 08:52:00,77.7,74.5,29.31,ENE,76,0.0,0.0,90,0.00,,,1.37,meteohub,2013-09-13 12:52:00,
2013-09-13 08:56:00,77.7,74.5,29.31,ENE,76,0.0,0.0,90,0.00,,,1.37,meteohub,2013-09-13 12:56:00,
2013-09-13 08:58:00,77.7,74.5,29.31,ENE,76,0.0,0.0,90,0.00,,,1.37,meteohub,2013-09-13 12:58:00,
2013-09-13 09:00:00,77.7,74.5,29.34,ENE,76,0.0,0.0,90,0.00,,,1.37,meteohub,2013-09-13 13:00:00,
2013-09-13 09:01:00,77.7,74.5,29.34,ENE,76,0.0,0.0,90,0.00,,,1.37,meteohub,2013-09-13 13:01:00,
2013-09-13 09:02:00,77.7,74.5,29.34,ENE,76,0.0,0.0,90,0.00,,,1.37,meteohub,2013-09-13 13:02:00,
2013-09-13 09:03:00,77.9,74.7,29.34,ENE,76,0.0,0.0,90,0.00,,,1.37,meteohub,2013-09-13 13:03:00,
2013-09-13 09:04:00,77.9,74.7,29.34,ENE,76,0.0,0.0,90,0.00,,,1.37,meteohub,2013-09-13 13:04:00,
2013-09-13 09:05:00,77.9,74.7,29.34,ENE,76,0.0,0.0,90,0.00,,,1.37,meteohub,2013-09-13 13:05:00,
2013-09-13 09:09:00,77.9,74.7,29.34,ENE,76,0.0,0.0,90,0.00,,,1.37,meteohub,2013-09-13 13:09:00,
2013-09-13 09:11:00,77.9,74.7,29.34,ENE,76,0.0,0.0,90,0.00,,,1.37,meteohub,2013-09-13 13:11:00,
2013-09-13 09:12:00,77.9,74.7,29.34,ENE,76,0.0,0.0,90,0.00,,,1.37,meteohub,2013-09-13 13:12:00,
2013-09-13 09:14:00,78.1,74.8,29.31,ENE,76,0.0,0.0,90,0.00,,,1.37,meteohub,2013-09-13 13:14:00,
2013-09-13 09:15:00,78.1,74.8,29.31,ENE,76,0.0,0.0,90,0.00,,,1.37,meteohub,2013-09-13 13:15:00,
2013-09-13 09:16:00,78.3,75.0,29.31,ENE,76,0.0,0.0,90,0.00,,,1.37,meteohub,2013-09-13 13:16:00,
2013-09-13 09:17:00,78.3,75.0,29.31,ENE,76,0.0,0.0,90,0.00,,,1.37,meteohub,2013-09-13 13:17:00,
2013-09-13 09:18:00,78.3,75.0,29.31,ENE,76,0.0,0.0,90,0.00,,,1.37,meteohub,2013-09-13 13:18:00,
2013-09-13 09:19:00,78.3,75.0,29.31,ENE,76,0.0,0.0,90,0.00,,,1.37,meteohub,2013-09-13 13:19:00,
2013-09-13 09:21:00,78.4,75.2,29.31,ENE,76,0.0,0.0,90,0.00,,,1.37,meteohub,2013-09-13 13:21:00,
2013-09-13 09:22:00,78.6,75.4,29.31,ENE,76,0.0,0.0,90,0.00,,,1.37,meteohub,2013-09-13 13:22:00,
2013-09-13 09:24:00,78.6,75.4,29.31,ENE,76,0.0,0.0,90,0.00,,,1.37,meteohub,2013-09-13 13:24:00,
2013-09-13 09:26:00,78.8,75.6,29.31,WNW,287,0.0,0.0,90,0.00,,,1.37,meteohub,2013-09-13 13:26:00,
2013-09-13 09:27:00,78.8,75.6,29.31,West,265,0.0,0.0,90,0.00,,,1.37,meteohub,2013-09-13 13:27:00,
2013-09-13 09:28:00,78.8,75.6,29.31,West,265,0.0,0.0,90,0.00,,,1.37,meteohub,2013-09-13 13:28:00,
2013-09-13 09:30:00,78.6,75.4,29.31,West,265,0.0,0.0,90,0.00,,,1.37,meteohub,2013-09-13 13:30:00,
2013-09-13 09:31:00,78.6,75.4,29.31,West,265,0.0,0.0,90,0.00,,,1.37,meteohub,2013-09-13 13:31:00,
2013-09-13 09:33:00,78.6,75.4,29.31,West,265,0.0,0.0,90,0.00,,,1.37,meteohub,2013-09-13 13:33:00,
2013-09-13 09:35:00,78.6,75.4,29.31,West,265,0.0,0.0,90,0.00,,,1.37,meteohub,2013-09-13 13:35:00,
2013-09-13 09:38:00,78.6,75.4,29.31,West,263,0.0,0.0,90,0.00,,,1.37,meteohub,2013-09-13 13:38:00,
2013-09-13 09:39:00,78.6,75.4,29.31,West,261,0.0,0.0,90,0.00,,,1.37,meteohub,2013-09-13 13:39:00,
2013-09-13 09:40:00,78.4,75.2,29.31,West,261,0.0,0.0,90,0.00,,,1.37,meteohub,2013-09-13 13:40:00,
2013-09-13 09:41:00,78.4,75.2,29.31,West,261,0.0,0.0,90,0.00,,,1.37,meteohub,2013-09-13 13:41:00,
2013-09-13 09:44:00,78.6,75.4,29.31,West,260,0.0,0.0,90,0.00,,,1.37,meteohub,2013-09-13 13:44:00,
2013-09-13 09:49:00,78.4,75.2,29.31,WSW,237,0.0,0.0,90,0.00,,,1.37,meteohub,2013-09-13 13:49:00,
2013-09-13 09:50:00,78.4,75.2,29.31,WSW,237,0.0,0.0,90,0.00,,,1.37,meteohub,2013-09-13 13:50:00,
2013-09-13 09:51:00,78.4,75.2,29.31,WSW,237,0.0,0.0,90,0.00,,,1.37,meteohub,2013-09-13 13:51:00,
2013-09-13 09:52:00,78.4,75.2,29.31,WSW,237,0.0,0.0,90,0.00,,,1.37,meteohub,2013-09-13 13:52:00,
2013-09-13 09:54:00,78.6,75.4,29.31,WSW,237,0.0,0.0,90,0.00,,,1.37,meteohub,2013-09-13 13:54:00,
2013-09-13 09:56:00,78.6,75.4,29.31,WSW,237,0.0,0.0,90,0.00,,,1.37,meteohub,2013-09-13 13:56:00,
2013-09-13 09:58:00,78.6,75.4,29.31,WSW,237,0.0,0.0,90,0.00,,,1.37,meteohub,2013-09-13 13:58:00,
2013-09-13 10:00:00,78.6,75.4,29.31,WSW,237,0.0,0.0,90,0.00,,,1.37,meteohub,2013-09-13 14:00:00,
2013-09-13 10:02:00,78.8,75.6,29.31,WSW,237,0.0,0.0,90,0.00,,,1.37,meteohub,2013-09-13 14:02:00,
2013-09-13 10:03:00,78.8,75.6,29.31,WSW,237,0.0,0.0,90,0.00,,,1.37,meteohub,2013-09-13 14:03:00,
2013-09-13 10:06:00,79.0,75.4,29.31,WSW,237,0.0,0.0,89,0.00,,,1.37,meteohub,2013-09-13 14:06:00,
2013-09-13 10:07:00,79.0,75.7,29.31,WSW,237,0.0,0.0,90,0.00,,,1.37,meteohub,2013-09-13 14:07:00,
2013-09-13 10:08:00,79.0,75.7,29.31,WSW,237,0.0,0.0,90,0.00,,,1.37,meteohub,2013-09-13 14:08:00,
2013-09-13 10:09:00,79.0,75.7,29.31,WSW,237,0.0,0.0,90,0.00,,,1.37,meteohub,2013-09-13 14:09:00,
2013-09-13 10:11:00,79.2,75.9,29.31,WSW,237,0.0,0.0,90,0.00,,,1.37,meteohub,2013-09-13 14:11:00,
2013-09-13 10:13:00,79.2,75.6,29.31,WSW,237,0.0,0.0,89,0.00,,,1.37,meteohub,2013-09-13 14:13:00,
2013-09-13 10:14:00,79.0,75.4,29.31,WSW,237,0.0,0.0,89,0.00,,,1.37,meteohub,2013-09-13 14:14:00,
2013-09-13 10:15:00,79.0,75.4,29.31,WSW,237,0.0,0.0,89,0.00,,,1.37,meteohub,2013-09-13 14:15:00,
2013-09-13 10:16:00,79.0,75.4,29.31,WSW,237,0.0,0.0,89,0.00,,,1.37,meteohub,2013-09-13 14:16:00,
2013-09-13 10:17:00,79.2,75.6,29.31,WSW,237,0.0,0.0,89,0.00,,,1.37,meteohub,2013-09-13 14:17:00,
2013-09-13 10:20:00,79.2,75.6,29.31,WSW,237,0.0,0.0,89,0.00,,,1.37,meteohub,2013-09-13 14:20:00,
2013-09-13 10:22:00,79.2,75.6,29.31,WSW,237,0.0,0.0,89,0.00,,,1.37,meteohub,2013-09-13 14:22:00,
2013-09-13 10:23:00,79.3,75.7,29.31,WSW,237,0.0,0.0,89,0.00,,,1.37,meteohub,2013-09-13 14:23:00,
2013-09-13 10:25:00,79.3,75.7,29.31,WSW,237,0.0,0.0,89,0.00,,,1.37,meteohub,2013-09-13 14:25:00,
2013-09-13 10:26:00,79.5,75.9,29.31,WSW,237,0.0,0.0,89,0.00,,,1.37,meteohub,2013-09-13 14:26:00,
2013-09-13 10:27:00,79.5,75.9,29.31,WSW,237,0.0,0.0,89,0.00,,,1.37,meteohub,2013-09-13 14:27:00,
2013-09-13 10:28:00,79.9,76.3,29.31,WSW,237,0.0,0.0,89,0.00,,,1.37,meteohub,2013-09-13 14:28:00,
2013-09-13 10:29:00,79.9,76.3,29.31,WSW,237,0.0,0.0,89,0.00,,,1.37,meteohub,2013-09-13 14:29:00,
2013-09-13 10:31:00,80.6,77.0,29.31,WSW,237,0.0,0.0,89,0.00,,,1.37,meteohub,2013-09-13 14:31:00,
2013-09-13 10:33:00,81.0,77.4,29.31,WSW,237,0.0,0.0,89,0.00,,,1.37,meteohub,2013-09-13 14:33:00,
2013-09-13 10:34:00,81.3,78.1,29.31,West,273,0.0,0.0,90,0.00,,,1.37,meteohub,2013-09-13 14:34:00,
2013-09-13 10:37:00,81.7,78.4,29.31,WSW,250,0.0,0.0,90,0.00,,,1.37,meteohub,2013-09-13 14:37:00,
2013-09-13 10:38:00,81.9,78.3,29.31,WSW,250,0.0,0.0,89,0.00,,,1.37,meteohub,2013-09-13 14:38:00,
2013-09-13 10:40:00,82.2,78.6,29.31,SW,235,0.0,0.0,89,0.00,,,1.37,meteohub,2013-09-13 14:40:00,
2013-09-13 10:42:00,82.4,78.4,29.31,South,176,0.0,0.0,88,0.00,,,1.37,meteohub,2013-09-13 14:42:00,
2013-09-13 10:43:00,82.4,78.4,29.31,South,176,0.0,0.0,88,0.00,,,1.37,meteohub,2013-09-13 14:43:00,
2013-09-13 10:45:00,82.4,78.4,29.31,West,263,4.0,0.0,88,0.00,,,1.37,meteohub,2013-09-13 14:45:00,
2013-09-13 10:47:00,82.2,78.3,29.31,SE,141,0.0,0.0,88,0.00,,,1.37,meteohub,2013-09-13 14:47:00,
2013-09-13 10:48:00,82.0,78.1,29.31,SE,141,0.0,0.0,88,0.00,,,1.37,meteohub,2013-09-13 14:48:00,
2013-09-13 10:51:00,81.7,77.4,29.31,SSW,194,0.0,0.0,87,0.00,,,1.37,meteohub,2013-09-13 14:51:00,
2013-09-13 10:52:00,81.7,77.4,29.31,SSW,194,0.0,4.0,87,0.00,,,1.37,meteohub,2013-09-13 14:52:00,
2013-09-13 10:53:00,81.7,77.4,29.31,WNW,288,0.0,4.0,87,0.00,,,1.37,meteohub,2013-09-13 14:53:00,
2013-09-13 10:55:00,81.3,76.6,29.31,South,172,0.0,4.0,86,0.00,,,1.37,meteohub,2013-09-13 14:55:00,
2013-09-13 10:57:00,81.1,76.3,29.31,South,172,0.0,4.0,85,0.00,,,1.37,meteohub,2013-09-13 14:57:00,
2013-09-13 10:58:00,81.0,76.1,29.31,South,172,0.0,4.0,85,0.00,,,1.37,meteohub,2013-09-13 14:58:00,
2013-09-13 10:59:00,81.0,76.1,29.31,South,172,0.0,4.0,85,0.00,,,1.37,meteohub,2013-09-13 14:59:00,
2013-09-13 11:02:00,80.8,75.9,29.31,South,172,0.0,3.0,85,0.00,,,1.37,meteohub,2013-09-13 15:02:00,
2013-09-13 11:03:00,80.8,75.9,29.31,South,172,0.0,3.0,85,0.00,,,1.37,meteohub,2013-09-13 15:03:00,
2013-09-13 11:09:00,80.6,75.7,29.31,WSW,252,0.0,3.0,85,0.00,,,1.37,meteohub,2013-09-13 15:09:00,
2013-09-13 11:10:00,80.6,75.7,29.31,WSW,252,0.0,3.0,85,0.00,,,1.37,meteohub,2013-09-13 15:10:00,
2013-09-13 11:11:00,80.6,75.7,29.31,WSW,252,0.0,3.0,85,0.00,,,1.37,meteohub,2013-09-13 15:11:00,
2013-09-13 11:14:00,81.0,76.1,29.31,WSW,252,0.0,0.0,85,0.00,,,1.37,meteohub,2013-09-13 15:14:00,
2013-09-13 11:17:00,81.3,76.5,29.31,WSW,252,0.0,0.0,85,0.00,,,1.37,meteohub,2013-09-13 15:17:00,
2013-09-13 11:18:00,81.5,76.3,29.31,WSW,252,0.0,0.0,84,0.00,,,1.37,meteohub,2013-09-13 15:18:00,
2013-09-13 11:20:00,81.7,76.3,29.31,WSW,252,0.0,0.0,84,0.00,,,1.37,meteohub,2013-09-13 15:20:00,
2013-09-13 11:21:00,82.0,76.6,29.31,WSW,252,0.0,0.0,84,0.00,,,1.37,meteohub,2013-09-13 15:21:00,
2013-09-13 11:24:00,82.8,77.0,29.31,WSW,252,0.0,0.0,83,0.00,,,1.37,meteohub,2013-09-13 15:24:00,
2013-09-13 11:25:00,82.8,77.0,29.31,WNW,302,0.0,0.0,83,0.00,,,1.37,meteohub,2013-09-13 15:25:00,
2013-09-13 11:27:00,82.9,76.8,29.31,WNW,302,0.0,0.0,82,0.00,,,1.37,meteohub,2013-09-13 15:27:00,
2013-09-13 11:30:00,82.2,73.6,29.31,South,182,0.0,0.0,75,0.00,,,1.37,meteohub,2013-09-13 15:30:00,
2013-09-13 11:31:00,82.0,72.9,29.31,SSW,197,0.0,0.0,74,0.00,,,1.37,meteohub,2013-09-13 15:31:00,
2013-09-13 11:32:00,81.9,72.3,29.31,SSW,197,0.0,3.0,73,0.00,,,1.37,meteohub,2013-09-13 15:32:00,
2013-09-13 11:35:00,80.4,68.5,29.31,SSW,203,0.0,3.0,67,0.00,,,1.37,meteohub,2013-09-13 15:35:00,
2013-09-13 11:36:00,80.2,67.8,29.31,SSW,203,0.0,3.0,66,0.00,,,1.37,meteohub,2013-09-13 15:36:00,
2013-09-13 11:37:00,80.4,68.5,29.31,SSW,203,0.0,3.0,67,0.00,,,1.37,meteohub,2013-09-13 15:37:00,
2013-09-13 11:38:00,80.4,68.5,29.31,SSW,203,0.0,3.0,67,0.00,,,1.37,meteohub,2013-09-13 15:38:00,
2013-09-13 11:40:00,80.2,67.8,29.31,SSW,203,0.0,3.0,66,0.00,,,1.37,meteohub,2013-09-13 15:40:00,
2013-09-13 11:41:00,79.9,67.1,29.31,SSW,203,0.0,3.0,65,0.00,,,1.37,meteohub,2013-09-13 15:41:00,
2013-09-13 11:43:00,79.3,65.1,29.31,SSW,203,0.0,3.0,62,0.00,,,1.37,meteohub,2013-09-13 15:43:00,
2013-09-13 11:46:00,78.8,63.3,29.31,SSW,205,0.0,3.0,59,0.00,,,1.37,meteohub,2013-09-13 15:46:00,
2013-09-13 11:47:00,78.8,63.3,29.31,SSW,205,0.0,3.0,59,0.00,,,1.37,meteohub,2013-09-13 15:47:00,
2013-09-13 11:51:00,78.3,61.3,29.31,SSW,205,0.0,0.0,56,0.00,,,1.37,meteohub,2013-09-13 15:51:00,
2013-09-13 11:52:00,78.3,60.8,29.31,SSW,205,0.0,0.0,55,0.00,,,1.37,meteohub,2013-09-13 15:52:00,
2013-09-13 11:55:00,77.7,59.2,29.31,SSW,205,0.0,0.0,53,0.00,,,1.37,meteohub,2013-09-13 15:55:00,
2013-09-13 11:56:00,77.5,59.0,29.31,SSW,205,0.0,0.0,53,0.00,,,1.37,meteohub,2013-09-13 15:56:00,
2013-09-13 11:57:00,77.5,59.5,29.31,SSW,205,0.0,0.0,54,0.00,,,1.37,meteohub,2013-09-13 15:57:00,
2013-09-13 11:58:00,77.4,58.8,29.31,SSW,205,0.0,0.0,53,0.00,,,1.37,meteohub,2013-09-13 15:58:00,
2013-09-13 11:59:00,77.4,58.8,29.31,SSW,205,0.0,0.0,53,0.00,,,1.37,meteohub,2013-09-13 15:59:00,
2013-09-13 12:02:00,77.0,58.6,29.31,SSW,205,0.0,0.0,53,0.00,,,1.37,meteohub,2013-09-13 16:02:00,
2013-09-13 12:03:00,76.6,57.2,29.31,SSW,205,0.0,0.0,51,0.00,,,1.37,meteohub,2013-09-13 16:03:00,
2013-09-13 12:06:00,76.3,56.8,29.31,SSW,205,0.0,0.0,51,0.00,,,1.37,meteohub,2013-09-13 16:06:00,
2013-09-13 12:08:00,76.1,56.7,29.31,SSW,205,0.0,0.0,51,0.00,,,1.37,meteohub,2013-09-13 16:08:00,
2013-09-13 12:09:00,76.1,57.2,29.31,SSW,205,0.0,0.0,52,0.00,,,1.37,meteohub,2013-09-13 16:09:00,
2013-09-13 12:12:00,75.6,56.7,29.31,NNW,342,0.0,3.0,52,0.00,,,1.37,meteohub,2013-09-13 16:12:00,
2013-09-13 12:13:00,75.4,56.5,29.31,NNW,342,0.0,3.0,52,0.00,,,1.37,meteohub,2013-09-13 16:13:00,
2013-09-13 12:14:00,75.4,56.5,29.28,NNW,342,0.0,3.0,52,0.00,,,1.37,meteohub,2013-09-13 16:14:00,
2013-09-13 12:15:00,75.4,56.5,29.28,NNW,342,0.0,3.0,52,0.00,,,1.37,meteohub,2013-09-13 16:15:00,
2013-09-13 12:16:00,75.2,56.3,29.28,NNW,342,0.0,3.0,52,0.00,,,1.37,meteohub,2013-09-13 16:16:00,
2013-09-13 12:18:00,75.2,56.3,29.28,NNW,342,0.0,3.0,52,0.00,,,1.37,meteohub,2013-09-13 16:18:00,
2013-09-13 12:19:00,75.2,56.8,29.28,West,267,0.0,3.0,53,0.00,,,1.37,meteohub,2013-09-13 16:19:00,
2013-09-13 12:20:00,75.4,57.0,29.28,West,267,0.0,3.0,53,0.00,,,1.37,meteohub,2013-09-13 16:20:00,
2013-09-13 12:21:00,75.6,56.7,29.28,West,267,0.0,3.0,52,0.00,,,1.37,meteohub,2013-09-13 16:21:00,
2013-09-13 12:24:00,76.1,58.3,29.28,West,267,0.0,3.0,54,0.00,,,1.37,meteohub,2013-09-13 16:24:00,
2013-09-13 12:25:00,76.3,58.5,29.28,West,271,0.0,3.0,54,0.00,,,1.37,meteohub,2013-09-13 16:25:00,
2013-09-13 12:26:00,76.5,58.6,29.28,South,186,0.0,3.0,54,0.00,,,1.37,meteohub,2013-09-13 16:26:00,
2013-09-13 12:27:00,76.5,58.1,29.28,SW,227,0.0,3.0,53,0.00,,,1.37,meteohub,2013-09-13 16:27:00,
2013-09-13 12:30:00,76.5,52.9,29.28,SSE,153,0.0,4.0,44,0.00,,,1.37,meteohub,2013-09-13 16:30:00,
2013-09-13 12:32:00,76.8,54.5,29.28,SSW,212,0.0,4.0,46,0.00,,,1.37,meteohub,2013-09-13 16:32:00,
2013-09-13 12:33:00,76.8,54.5,29.28,SSW,212,0.0,4.0,46,0.00,,,1.37,meteohub,2013-09-13 16:33:00,
2013-09-13 12:34:00,77.0,54.7,29.28,SW,219,0.0,4.0,46,0.00,,,1.37,meteohub,2013-09-13 16:34:00,
2013-09-13 12:35:00,77.2,54.1,29.28,SW,219,0.0,4.0,45,0.00,,,1.37,meteohub,2013-09-13 16:35:00,
2013-09-13 12:37:00,77.4,54.3,29.28,SW,219,0.0,4.0,45,-99.99,,,1.37,meteohub,2013-09-13 16:37:00,
2013-09-13 12:39:00,77.5,52.7,29.28,SE,124,0.0,4.0,42,-99.99,,,1.37,meteohub,2013-09-13 16:39:00,
2013-09-13 12:40:00,77.7,52.2,29.28,SE,124,0.0,4.0,41,-99.99,,,1.37,meteohub,2013-09-13 16:40:00,
2013-09-13 12:41:00,77.7,50.7,29.28,SE,130,0.0,4.0,39,-99.99,,,1.37,meteohub,2013-09-13 16:41:00,
2013-09-13 12:43:00,77.9,49.5,29.28,NE,43,0.0,4.0,37,-99.99,,,1.37,meteohub,2013-09-13 16:43:00,
2013-09-13 12:44:00,77.9,49.5,29.28,NE,43,0.0,4.0,37,-99.99,,,1.37,meteohub,2013-09-13 16:44:00,
2013-09-13 12:47:00,78.3,50.5,29.28,South,190,3.0,4.0,38,-99.99,,,1.37,meteohub,2013-09-13 16:47:00,
2013-09-13 12:48:00,78.3,49.8,29.28,South,190,2.0,4.0,37,-99.99,,,1.37,meteohub,2013-09-13 16:48:00,
2013-09-13 12:49:00,78.4,50.7,29.28,South,190,0.0,3.0,38,-99.99,,,1.37,meteohub,2013-09-13 16:49:00,
2013-09-13 12:50:00,78.6,51.6,29.28,South,190,0.0,3.0,39,-99.99,,,1.37,meteohub,2013-09-13 16:50:00,
2013-09-13 12:52:00,78.6,50.2,29.28,WSW,255,0.0,3.0,37,-99.99,,,1.37,meteohub,2013-09-13 16:52:00,
2013-09-13 12:55:00,78.8,49.6,29.28,South,171,0.0,3.0,36,-99.99,,,1.37,meteohub,2013-09-13 16:55:00,
2013-09-13 12:56:00,79.0,49.8,29.28,West,277,0.0,3.0,36,-99.99,,,1.37,meteohub,2013-09-13 16:56:00,
2013-09-13 12:57:00,79.0,48.9,29.28,South,185,2.0,6.0,35,-99.99,,,1.37,meteohub,2013-09-13 16:57:00,
2013-09-13 12:58:00,79.0,48.9,29.28,South,185,0.0,6.0,35,-99.99,,,1.37,meteohub,2013-09-13 16:58:00,
2013-09-13 13:02:00,78.4,47.7,29.28,SE,142,0.0,6.0,34,-99.99,,,1.37,meteohub,2013-09-13 17:02:00,
2013-09-13 13:03:00,78.1,48.2,29.28,WNW,283,0.0,6.0,35,-99.99,,,1.37,meteohub,2013-09-13 17:03:00,
2013-09-13 13:05:00,78.1,48.9,29.28,WNW,283,0.0,6.0,36,-99.99,,,1.37,meteohub,2013-09-13 17:05:00,
2013-09-13 13:07:00,77.5,49.3,29.28,SSW,198,0.0,6.0,37,-99.99,,,1.37,meteohub,2013-09-13 17:07:00,
2013-09-13 13:08:00,77.4,49.8,29.28,SSW,198,0.0,6.0,38,-99.99,,,1.37,meteohub,2013-09-13 17:08:00,
2013-09-13 13:11:00,76.8,50.0,29.28,SSW,198,0.0,3.0,39,-99.99,,,1.37,meteohub,2013-09-13 17:11:00,
2013-09-13 13:12:00,76.6,50.5,29.28,SSW,198,0.0,3.0,40,-99.99,,,1.37,meteohub,2013-09-13 17:12:00,
2013-09-13 13:13:00,76.5,51.1,29.28,SSW,198,0.0,3.0,41,-99.99,,,1.37,meteohub,2013-09-13 17:13:00,
2013-09-13 13:14:00,76.3,50.9,29.28,SSW,198,0.0,3.0,41,-99.99,,,1.37,meteohub,2013-09-13 17:14:00,
2013-09-13 13:16:00,75.9,51.3,29.28,SSW,198,0.0,3.0,42,-99.99,,,1.37,meteohub,2013-09-13 17:16:00,
2013-09-13 13:18:00,75.7,51.1,29.28,SSW,198,0.0,3.0,42,-99.99,,,1.37,meteohub,2013-09-13 17:18:00,
2013-09-13 13:19:00,75.6,50.9,29.28,SSW,198,0.0,3.0,42,-99.99,,,1.37,meteohub,2013-09-13 17:19:00,
2013-09-13 13:20:00,75.4,51.3,29.28,SSW,213,0.0,3.0,43,-99.99,,,1.37,meteohub,2013-09-13 17:20:00,
2013-09-13 13:23:00,75.2,52.3,29.28,WNW,285,0.0,0.0,45,-99.99,,,1.37,meteohub,2013-09-13 17:23:00,
2013-09-13 13:25:00,75.0,51.6,29.28,West,264,0.0,0.0,44,-99.99,,,1.37,meteohub,2013-09-13 17:25:00,
2013-09-13 13:26:00,75.0,52.2,29.28,WNW,298,0.0,0.0,45,-99.99,,,1.37,meteohub,2013-09-13 17:26:00,
2013-09-13 13:27:00,75.0,52.2,29.28,WNW,298,0.0,0.0,45,-99.99,,,1.37,meteohub,2013-09-13 17:27:00,
2013-09-13 13:28:00,74.8,52.2,29.28,WNW,298,0.0,0.0,45,-99.99,,,1.37,meteohub,2013-09-13 17:28:00,
2013-09-13 13:29:00,74.8,52.2,29.28,West,273,0.0,0.0,45,-99.99,,,1.37,meteohub,2013-09-13 17:29:00,
2013-09-13 13:32:00,74.8,52.2,29.28,SW,231,0.0,5.0,45,-99.99,,,1.37,meteohub,2013-09-13 17:32:00,
2013-09-13 13:34:00,74.8,52.2,29.28,SW,231,0.0,5.0,45,-99.99,,,1.37,meteohub,2013-09-13 17:34:00,
2013-09-13 13:35:00,74.8,52.2,29.28,SW,231,0.0,5.0,45,-99.99,,,1.37,meteohub,2013-09-13 17:35:00,
2013-09-13 13:38:00,75.0,52.2,29.28,SSE,166,0.0,5.0,45,-99.99,,,1.37,meteohub,2013-09-13 17:38:00,
2013-09-13 13:39:00,75.0,52.2,29.28,SSE,166,0.0,5.0,45,-99.99,,,1.37,meteohub,2013-09-13 17:39:00,
2013-09-13 13:40:00,75.0,52.2,29.28,SSE,166,0.0,5.0,45,-99.99,,,1.37,meteohub,2013-09-13 17:40:00,
2013-09-13 13:41:00,75.2,52.3,29.28,SSE,168,0.0,5.0,45,-99.99,,,1.37,meteohub,2013-09-13 17:41:00,
2013-09-13 13:42:00,75.4,52.0,29.28,SSE,156,0.0,5.0,44,-99.99,,,1.37,meteohub,2013-09-13 17:42:00,
2013-09-13 13:45:00,75.9,53.1,29.28,SSW,207,4.0,5.0,45,-99.99,,,1.37,meteohub,2013-09-13 17:45:00,
2013-09-13 13:46:00,76.1,52.5,29.28,SW,223,0.0,5.0,44,-99.99,,,1.37,meteohub,2013-09-13 17:46:00,
2013-09-13 13:48:00,76.3,49.5,29.28,WSW,250,4.0,6.0,39,-99.99,,,1.37,meteohub,2013-09-13 17:48:00,
2013-09-13 13:49:00,76.5,50.4,29.28,SSW,196,0.0,6.0,40,-99.99,,,1.37,meteohub,2013-09-13 17:49:00,
2013-09-13 13:50:00,76.6,50.5,29.28,NW,304,4.0,6.0,40,-99.99,,,1.37,meteohub,2013-09-13 17:50:00,
2013-09-13 13:51:00,76.8,50.0,29.28,West,270,4.0,6.0,39,-99.99,,,1.37,meteohub,2013-09-13 17:51:00,
2013-09-13 13:52:00,77.0,50.2,29.28,SSW,199,0.0,6.0,39,-99.99,,,1.37,meteohub,2013-09-13 17:52:00,
2013-09-13 13:55:00,77.2,47.5,29.28,SSW,205,4.0,6.0,35,-99.99,,,1.37,meteohub,2013-09-13 17:55:00,
2013-09-13 13:56:00,77.4,47.5,29.28,SSW,204,0.0,6.0,35,-99.99,,,1.37,meteohub,2013-09-13 17:56:00,
2013-09-13 13:58:00,77.5,47.7,29.28,SW,214,0.0,6.0,35,-99.99,,,1.37,meteohub,2013-09-13 17:58:00,
2013-09-13 14:01:00,77.7,48.6,29.28,SSW,204,2.0,6.0,36,-99.99,,,1.37,meteohub,2013-09-13 18:01:00,
2013-09-13 14:02:00,77.7,48.6,29.28,SSW,204,2.0,6.0,36,-99.99,,,1.37,meteohub,2013-09-13 18:02:00,
2013-09-13 14:03:00,77.7,48.6,29.28,WSW,248,0.0,6.0,36,-99.99,,,1.37,meteohub,2013-09-13 18:03:00,
2013-09-13 14:04:00,77.7,48.6,29.28,SSE,150,0.0,6.0,36,-99.99,,,1.37,meteohub,2013-09-13 18:04:00,
2013-09-13 14:05:00,77.7,49.5,29.28,South,182,3.0,6.0,37,-99.99,,,1.37,meteohub,2013-09-13 18:05:00,
2013-09-13 14:07:00,77.7,49.5,29.28,West,270,0.0,6.0,37,-99.99,,,1.37,meteohub,2013-09-13 18:07:00,
2013-09-13 14:08:00,77.7,48.6,29.28,SSE,163,0.0,6.0,36,-99.99,,,1.37,meteohub,2013-09-13 18:08:00,
2013-09-13 14:09:00,77.7,48.6,29.28,SSE,168,0.0,6.0,36,-99.99,,,1.37,meteohub,2013-09-13 18:09:00,
2013-09-13 14:11:00,77.5,47.7,29.28,WSW,240,3.0,6.0,35,-99.99,,,1.37,meteohub,2013-09-13 18:11:00,
2013-09-13 14:13:00,77.5,46.9,29.28,West,265,3.0,5.0,34,-99.99,,,1.37,meteohub,2013-09-13 18:13:00,
2013-09-13 14:14:00,77.5,46.9,29.28,WSW,246,0.0,5.0,34,-99.99,,,1.37,meteohub,2013-09-13 18:14:00,
2013-09-13 14:15:00,77.5,46.9,29.28,South,173,0.0,5.0,34,-99.99,,,1.37,meteohub,2013-09-13 18:15:00,
2013-09-13 14:16:00,77.5,46.9,29.28,South,177,0.0,5.0,34,-99.99,,,1.37,meteohub,2013-09-13 18:16:00,
2013-09-13 14:19:00,77.5,46.2,29.28,SW,230,0.0,5.0,33,-99.99,,,1.37,meteohub,2013-09-13 18:19:00,
2013-09-13 14:20:00,77.5,46.2,29.28,North,353,3.0,5.0,33,-99.99,,,1.37,meteohub,2013-09-13 18:20:00,
2013-09-13 14:22:00,77.5,46.9,29.28,SSW,211,3.0,4.0,34,-99.99,,,1.37,meteohub,2013-09-13 18:22:00,
2013-09-13 14:23:00,77.5,46.9,29.28,SSW,202,2.0,4.0,34,-99.99,,,1.37,meteohub,2013-09-13 18:23:00,
2013-09-13 14:24:00,77.5,46.2,29.28,East,82,3.0,4.0,33,-99.99,,,1.37,meteohub,2013-09-13 18:24:00,
2013-09-13 14:28:00,77.5,46.2,29.28,West,276,3.0,6.0,33,-99.99,,,1.37,meteohub,2013-09-13 18:28:00,
2013-09-13 14:29:00,77.5,46.9,29.28,South,177,3.0,6.0,34,-99.99,,,1.37,meteohub,2013-09-13 18:29:00,
2013-09-13 14:31:00,77.5,46.2,29.28,WSW,249,5.0,8.0,33,0.00,,,1.37,meteohub,2013-09-13 18:31:00,
2013-09-13 14:33:00,77.5,46.2,29.28,SSE,168,3.0,8.0,33,0.00,,,1.37,meteohub,2013-09-13 18:33:00,
2013-09-13 14:34:00,77.5,46.2,29.28,South,170,0.0,8.0,33,0.00,,,1.37,meteohub,2013-09-13 18:34:00,
2013-09-13 14:35:00,77.5,46.2,29.28,South,170,0.0,8.0,33,0.00,,,1.37,meteohub,2013-09-13 18:35:00,
2013-09-13 14:39:00,77.5,47.7,29.28,SSW,213,0.0,8.0,35,0.00,,,1.37,meteohub,2013-09-13 18:39:00,
2013-09-13 14:40:00,77.5,47.7,29.28,SSW,203,3.0,8.0,35,0.00,,,1.37,meteohub,2013-09-13 18:40:00,
2013-09-13 14:41:00,77.5,47.7,29.28,SSW,199,0.0,8.0,35,0.00,,,1.37,meteohub,2013-09-13 18:41:00,
2013-09-13 14:44:00,77.4,46.0,29.28,South,175,2.0,8.0,33,0.00,,,1.37,meteohub,2013-09-13 18:44:00,
2013-09-13 14:45:00,77.4,46.0,29.28,SSE,162,0.0,8.0,33,0.00,,,1.37,meteohub,2013-09-13 18:45:00,
2013-09-13 14:46:00,77.2,46.6,29.28,South,173,0.0,8.0,34,0.00,,,1.37,meteohub,2013-09-13 18:46:00,
2013-09-13 14:47:00,77.2,45.9,29.28,SW,226,0.0,8.0,33,0.00,,,1.37,meteohub,2013-09-13 18:47:00,
2013-09-13 14:48:00,77.0,46.4,29.28,SW,235,0.0,8.0,34,0.00,,,1.37,meteohub,2013-09-13 18:48:00,
2013-09-13 14:49:00,77.0,46.4,29.28,WNW,286,3.0,6.0,34,0.00,,,1.37,meteohub,2013-09-13 18:49:00,
2013-09-13 14:53:00,76.6,47.7,29.28,SW,233,0.0,6.0,36,0.00,,,1.37,meteohub,2013-09-13 18:53:00,
2013-09-13 14:54:00,76.6,47.7,29.28,SSW,192,0.0,6.0,36,0.00,,,1.37,meteohub,2013-09-13 18:54:00,
2013-09-13 14:56:00,76.5,47.5,29.28,SSW,205,4.0,6.0,36,0.00,,,1.37,meteohub,2013-09-13 18:56:00,
2013-09-13 14:57:00,76.5,46.8,29.28,SSW,194,0.0,4.0,35,0.00,,,1.37,meteohub,2013-09-13 18:57:00,
2013-09-13 14:59:00,76.5,47.5,29.28,WSW,248,0.0,4.0,36,0.00,,,1.37,meteohub,2013-09-13 18:59:00,
2013-09-13 15:00:00,76.5,47.5,29.28,SSE,155,0.0,4.0,36,0.00,,,1.37,meteohub,2013-09-13 19:00:00,
2013-09-13 15:02:00,76.5,47.5,29.28,South,185,0.0,5.0,36,0.00,,,1.37,meteohub,2013-09-13 19:02:00,
2013-09-13 15:03:00,76.5,47.5,29.28,SW,222,0.0,5.0,36,0.00,,,1.37,meteohub,2013-09-13 19:03:00,
2013-09-13 15:06:00,76.6,47.7,29.28,NW,311,2.0,5.0,36,0.00,,,1.37,meteohub,2013-09-13 19:06:00,
2013-09-13 15:07:00,76.6,47.7,29.28,SW,231,0.0,5.0,36,0.00,,,1.37,meteohub,2013-09-13 19:07:00,
2013-09-13 15:08:00,76.6,47.7,29.28,SW,236,0.0,5.0,36,0.00,,,1.37,meteohub,2013-09-13 19:08:00,
2013-09-13 15:10:00,76.6,47.7,29.28,SW,236,0.0,5.0,36,0.00,,,1.37,meteohub,2013-09-13 19:10:00,
2013-09-13 15:11:00,76.6,46.2,29.28,SSW,203,3.0,5.0,34,0.00,,,1.37,meteohub,2013-09-13 19:11:00,
2013-09-13 15:12:00,76.6,46.9,29.28,SSW,203,0.0,4.0,35,0.00,,,1.37,meteohub,2013-09-13 19:12:00,
2013-09-13 15:13:00,76.8,49.3,29.28,SSW,203,0.0,4.0,38,0.00,,,1.37,meteohub,2013-09-13 19:13:00,
2013-09-13 15:14:00,76.6,48.4,29.28,North,0,0.0,4.0,37,0.00,,,1.37,meteohub,2013-09-13 19:14:00,
2013-09-13 15:15:00,76.6,48.4,29.28,South,183,0.0,4.0,37,0.00,,,1.37,meteohub,2013-09-13 19:15:00,
2013-09-13 15:18:00,76.6,49.1,29.28,South,178,0.0,5.0,38,0.00,,,1.37,meteohub,2013-09-13 19:18:00,
2013-09-13 15:20:00,76.5,48.2,29.28,WSW,237,6.0,6.0,37,0.00,,,1.37,meteohub,2013-09-13 19:20:00,
2013-09-13 15:21:00,76.5,47.5,29.28,South,191,3.0,5.0,36,0.00,,,1.37,meteohub,2013-09-13 19:21:00,
2013-09-13 15:24:00,76.1,47.1,29.28,SW,230,0.0,5.0,36,0.00,,,1.37,meteohub,2013-09-13 19:24:00,
2013-09-13 15:25:00,75.9,47.1,29.28,SW,230,0.0,5.0,36,0.00,,,1.37,meteohub,2013-09-13 19:25:00,
2013-09-13 15:26:00,75.9,47.1,29.28,SW,218,0.0,5.0,36,0.00,,,1.37,meteohub,2013-09-13 19:26:00,
2013-09-13 15:29:00,75.7,47.7,29.28,SW,218,0.0,6.0,37,0.00,,,1.37,meteohub,2013-09-13 19:29:00,
2013-09-13 15:31:00,75.7,47.7,29.28,SW,218,0.0,6.0,37,0.00,,,1.37,meteohub,2013-09-13 19:31:00,
2013-09-13 15:32:00,75.6,48.9,29.28,SW,218,0.0,6.0,39,0.00,,,1.37,meteohub,2013-09-13 19:32:00,
2013-09-13 15:33:00,75.6,50.2,29.28,SW,218,0.0,6.0,41,0.00,,,1.37,meteohub,2013-09-13 19:33:00,
2013-09-13 15:36:00,75.4,50.0,29.28,SW,218,0.0,6.0,41,0.00,,,1.37,meteohub,2013-09-13 19:36:00,
2013-09-13 15:37:00,75.4,50.0,29.28,SW,218,0.0,4.0,41,0.00,,,1.37,meteohub,2013-09-13 19:37:00,
2013-09-13 15:38:00,75.4,50.0,29.28,SW,218,0.0,4.0,41,0.00,,,1.37,meteohub,2013-09-13 19:38:00,
2013-09-13 15:40:00,75.4,50.0,29.28,SW,218,0.0,4.0,41,0.00,,,1.37,meteohub,2013-09-13 19:40:00,
2013-09-13 15:43:00,75.2,49.8,29.28,WNW,291,0.0,0.0,41,0.00,,,1.37,meteohub,2013-09-13 19:43:00,
2013-09-13 15:44:00,75.2,49.8,29.28,SW,226,0.0,0.0,41,0.00,,,1.37,meteohub,2013-09-13 19:44:00,
2013-09-13 15:45:00,75.2,49.8,29.28,SW,226,0.0,0.0,41,0.00,,,1.37,meteohub,2013-09-13 19:45:00,
2013-09-13 15:46:00,75.0,49.6,29.28,SSW,192,0.0,0.0,41,0.00,,,1.37,meteohub,2013-09-13 19:46:00,
2013-09-13 15:49:00,74.8,49.6,29.28,SW,214,0.0,0.0,41,0.00,,,1.37,meteohub,2013-09-13 19:49:00,
2013-09-13 15:50:00,74.7,49.5,29.28,SW,214,0.0,0.0,41,0.00,,,1.37,meteohub,2013-09-13 19:50:00,
2013-09-13 15:52:00,74.7,50.0,29.28,SSW,210,4.0,4.0,42,0.00,,,1.37,meteohub,2013-09-13 19:52:00,
2013-09-13 15:53:00,74.7,49.5,29.28,SSW,212,3.0,3.0,41,0.00,,,1.37,meteohub,2013-09-13 19:53:00,
2013-09-13 15:54:00,74.5,49.3,29.28,SSW,213,3.0,3.0,41,0.00,,,1.37,meteohub,2013-09-13 19:54:00,
2013-09-13 15:56:00,74.5,49.3,29.28,WNW,295,4.0,4.0,41,0.00,,,1.37,meteohub,2013-09-13 19:56:00,
2013-09-13 15:57:00,74.3,49.1,29.28,SW,229,0.0,6.0,41,0.00,,,1.37,meteohub,2013-09-13 19:57:00,
2013-09-13 15:58:00,74.3,49.1,29.28,SW,229,0.0,6.0,41,0.00,,,1.37,meteohub,2013-09-13 19:58:00,
2013-09-13 16:01:00,74.1,48.9,29.31,SSW,198,3.0,6.0,41,0.00,,,1.37,meteohub,2013-09-13 20:01:00,
2013-09-13 16:03:00,73.9,48.7,29.31,SSE,161,0.0,6.0,41,0.00,,,1.37,meteohub,2013-09-13 20:03:00,
2013-09-13 16:05:00,73.8,48.6,29.31,SSE,158,0.0,6.0,41,0.00,,,1.37,meteohub,2013-09-13 20:05:00,
2013-09-13 16:06:00,73.8,48.6,29.31,SSE,158,0.0,6.0,41,0.00,,,1.37,meteohub,2013-09-13 20:06:00,
2013-09-13 16:07:00,73.6,48.4,29.31,SSE,158,0.0,6.0,41,0.00,,,1.37,meteohub,2013-09-13 20:07:00,
2013-09-13 16:08:00,73.6,49.1,29.31,SSE,158,0.0,6.0,42,0.00,,,1.37,meteohub,2013-09-13 20:08:00,
2013-09-13 16:11:00,73.4,48.9,29.31,SSW,197,0.0,6.0,42,0.00,,,1.37,meteohub,2013-09-13 20:11:00,
2013-09-13 16:12:00,73.4,48.9,29.31,SE,136,3.0,4.0,42,0.00,,,1.37,meteohub,2013-09-13 20:12:00,
2013-09-13 16:13:00,73.2,48.7,29.31,SSE,149,0.0,4.0,42,0.00,,,1.37,meteohub,2013-09-13 20:13:00,
2013-09-13 16:14:00,73.2,48.7,29.31,SSE,149,0.0,4.0,42,0.00,,,1.37,meteohub,2013-09-13 20:14:00,
2013-09-13 16:16:00,72.9,47.1,29.31,SSW,196,0.0,4.0,40,0.00,,,1.37,meteohub,2013-09-13 20:16:00,
2013-09-13 16:18:00,72.9,47.1,29.31,SSW,192,0.0,5.0,40,0.00,,,1.37,meteohub,2013-09-13 20:18:00,
2013-09-13 16:19:00,72.7,47.7,29.31,SSW,195,0.0,5.0,41,0.00,,,1.37,meteohub,2013-09-13 20:19:00,
2013-09-13 16:21:00,72.7,47.7,29.31,SSW,201,0.0,5.0,41,0.00,,,1.37,meteohub,2013-09-13 20:21:00,
2013-09-13 16:22:00,72.5,48.0,29.31,SSW,208,0.0,5.0,42,0.00,,,1.37,meteohub,2013-09-13 20:22:00,
2013-09-13 16:23:00,72.5,48.0,29.31,SSW,204,0.0,5.0,42,0.00,,,1.37,meteohub,2013-09-13 20:23:00,
2013-09-13 16:28:00,72.1,47.8,29.31,WSW,257,0.0,5.0,42,0.00,,,1.37,meteohub,2013-09-13 20:28:00,
2013-09-13 16:29:00,72.0,47.7,29.31,SW,217,3.0,5.0,42,0.00,,,1.37,meteohub,2013-09-13 20:29:00,
2013-09-13 16:31:00,72.0,48.2,29.31,SW,229,2.0,5.0,43,0.00,,,1.37,meteohub,2013-09-13 20:31:00,
2013-09-13 16:34:00,71.8,48.0,29.31,SSW,211,4.0,4.0,43,0.00,,,1.37,meteohub,2013-09-13 20:34:00,
2013-09-13 16:35:00,71.8,47.5,29.31,SW,228,3.0,4.0,42,0.00,,,1.37,meteohub,2013-09-13 20:35:00,
2013-09-13 16:36:00,71.6,47.3,29.31,NW,312,0.0,4.0,42,0.00,,,1.37,meteohub,2013-09-13 20:36:00,
2013-09-13 16:37:00,71.6,47.3,29.31,WNW,300,0.0,4.0,42,0.00,,,1.37,meteohub,2013-09-13 20:37:00,
2013-09-13 16:38:00,71.6,47.3,29.31,WNW,283,3.0,5.0,42,0.00,,,1.37,meteohub,2013-09-13 20:38:00,
2013-09-13 16:39:00,71.4,47.8,29.31,WSW,254,0.0,5.0,43,0.00,,,1.37,meteohub,2013-09-13 20:39:00,
2013-09-13 16:41:00,71.4,47.8,29.31,SSW,206,3.0,5.0,43,0.00,,,1.37,meteohub,2013-09-13 20:41:00,
2013-09-13 16:42:00,71.2,47.7,29.31,SW,227,5.0,5.0,43,0.00,,,1.37,meteohub,2013-09-13 20:42:00,
2013-09-13 16:43:00,71.2,47.7,29.31,SSW,192,3.0,5.0,43,0.00,,,1.37,meteohub,2013-09-13 20:43:00,
2013-09-13 16:45:00,71.2,47.7,29.31,ENE,71,3.0,5.0,43,0.00,,,1.37,meteohub,2013-09-13 20:45:00,
2013-09-13 16:47:00,71.1,48.0,29.31,WNW,287,3.0,5.0,44,0.00,,,1.37,meteohub,2013-09-13 20:47:00,
2013-09-13 16:48:00,71.1,48.0,29.31,East,80,0.0,5.0,44,0.00,,,1.37,meteohub,2013-09-13 20:48:00,
2013-09-13 16:49:00,71.1,48.0,29.31,South,174,3.0,5.0,44,0.00,,,1.37,meteohub,2013-09-13 20:49:00,
2013-09-13 16:52:00,71.2,48.2,29.31,NW,315,4.0,5.0,44,0.00,,,1.37,meteohub,2013-09-13 20:52:00,
2013-09-13 16:54:00,71.4,47.8,29.31,West,273,3.0,5.0,43,0.00,,,1.37,meteohub,2013-09-13 20:54:00,
2013-09-13 16:56:00,71.4,47.8,29.31,South,180,0.0,5.0,43,0.00,,,1.37,meteohub,2013-09-13 20:56:00,
2013-09-13 16:57:00,71.4,47.8,29.31,SSW,212,0.0,5.0,43,0.00,,,1.37,meteohub,2013-09-13 20:57:00,
2013-09-13 16:59:00,71.4,47.8,29.31,ENE,65,4.0,5.0,43,0.00,,,1.37,meteohub,2013-09-13 20:59:00,
2013-09-13 17:00:00,71.4,47.1,29.31,SSW,196,3.0,5.0,42,0.00,,,1.37,meteohub,2013-09-13 21:00:00,
2013-09-13 17:02:00,71.4,47.1,29.31,West,277,0.0,5.0,42,0.00,,,1.37,meteohub,2013-09-13 21:02:00,
2013-09-13 17:03:00,71.4,47.8,29.31,WNW,286,3.0,5.0,43,0.00,,,1.37,meteohub,2013-09-13 21:03:00,
2013-09-13 17:07:00,71.2,47.7,29.31,SE,125,2.0,5.0,43,0.00,,,1.37,meteohub,2013-09-13 21:07:00,
2013-09-13 17:09:00,71.1,47.5,29.31,SSW,213,4.0,5.0,43,0.00,,,1.37,meteohub,2013-09-13 21:09:00,
2013-09-13 17:10:00,71.1,48.0,29.31,WSW,243,2.0,5.0,44,0.00,,,1.37,meteohub,2013-09-13 21:10:00,
2013-09-13 17:13:00,70.7,47.7,29.31,SSW,201,4.0,6.0,44,0.00,,,1.37,meteohub,2013-09-13 21:13:00,
2013-09-13 17:14:00,70.5,47.5,29.31,SSW,200,4.0,6.0,44,0.00,,,1.37,meteohub,2013-09-13 21:14:00,
2013-09-13 17:18:00,70.2,47.3,29.31,South,171,3.0,6.0,44,0.00,,,1.37,meteohub,2013-09-13 21:18:00,
2013-09-13 17:19:00,70.0,47.1,29.31,East,80,3.0,6.0,44,0.00,,,1.37,meteohub,2013-09-13 21:19:00,
2013-09-13 17:21:00,69.8,47.5,29.31,West,280,3.0,6.0,45,0.00,,,1.37,meteohub,2013-09-13 21:21:00,
2013-09-13 17:23:00,69.6,47.8,29.31,West,259,5.0,6.0,46,0.00,,,1.37,meteohub,2013-09-13 21:23:00,
2013-09-13 17:24:00,69.4,47.8,29.31,WNW,301,0.0,6.0,46,0.00,,,1.37,meteohub,2013-09-13 21:24:00,
2013-09-13 17:27:00,69.3,48.2,29.31,SSE,163,0.0,6.0,47,0.00,,,1.37,meteohub,2013-09-13 21:27:00,
2013-09-13 17:28:00,69.3,48.2,29.31,SSE,163,0.0,6.0,47,0.00,,,1.37,meteohub,2013-09-13 21:28:00,
2013-09-13 17:29:00,69.3,48.2,29.31,SSE,163,0.0,6.0,47,0.00,,,1.37,meteohub,2013-09-13 21:29:00,
2013-09-13 17:30:00,69.3,48.2,29.34,SW,220,0.0,6.0,47,0.00,,,1.37,meteohub,2013-09-13 21:30:00,
2013-09-13 17:33:00,69.1,48.6,29.34,SW,236,0.0,6.0,48,0.00,,,1.37,meteohub,2013-09-13 21:33:00,
2013-09-13 17:34:00,69.1,48.6,29.34,NE,44,4.0,6.0,48,0.00,,,1.37,meteohub,2013-09-13 21:34:00,
2013-09-13 17:35:00,69.1,48.6,29.34,North,4,0.0,6.0,48,0.00,,,1.37,meteohub,2013-09-13 21:35:00,
2013-09-13 17:38:00,69.1,49.1,29.34,South,173,4.0,5.0,49,0.00,,,1.37,meteohub,2013-09-13 21:38:00,
2013-09-13 17:39:00,69.1,49.1,29.34,SSW,202,4.0,5.0,49,0.00,,,1.37,meteohub,2013-09-13 21:39:00,
2013-09-13 17:40:00,68.9,46.8,29.34,East,98,4.0,5.0,45,0.00,,,1.37,meteohub,2013-09-13 21:40:00,
2013-09-13 17:43:00,68.9,47.3,29.34,South,184,2.0,5.0,46,0.00,,,1.37,meteohub,2013-09-13 21:43:00,
2013-09-13 17:44:00,68.9,47.3,29.34,South,190,3.0,5.0,46,0.00,,,1.37,meteohub,2013-09-13 21:44:00,
2013-09-13 17:45:00,68.9,46.8,29.34,SE,125,3.0,5.0,45,0.00,,,1.37,meteohub,2013-09-13 21:45:00,
2013-09-13 17:49:00,68.7,47.1,29.34,WNW,293,0.0,5.0,46,0.00,,,1.37,meteohub,2013-09-13 21:49:00,
2013-09-13 17:50:00,68.7,47.1,29.34,WNW,293,0.0,5.0,46,0.00,,,1.37,meteohub,2013-09-13 21:50:00,
2013-09-13 17:51:00,68.7,47.1,29.34,SSW,199,0.0,5.0,46,0.00,,,1.37,meteohub,2013-09-13 21:51:00,
2013-09-13 17:55:00,68.5,46.9,29.34,SW,217,5.0,5.0,46,0.00,,,1.37,meteohub,2013-09-13 21:55:00,
2013-09-13 17:56:00,68.5,46.9,29.34,ENE,57,4.0,4.0,46,0.00,,,1.37,meteohub,2013-09-13 21:56:00,
2013-09-13 17:58:00,68.4,46.2,29.34,ESE,111,0.0,5.0,45,0.00,,,1.37,meteohub,2013-09-13 21:58:00,
2013-09-13 18:00:00,68.4,46.2,29.34,South,180,3.0,5.0,45,0.00,,,1.37,meteohub,2013-09-13 22:00:00,
2013-09-13 18:01:00,68.4,46.8,29.34,South,181,0.0,5.0,46,0.00,,,1.37,meteohub,2013-09-13 22:01:00,
2013-09-13 18:04:00,68.2,46.6,29.34,SSE,166,0.0,5.0,46,0.00,,,1.37,meteohub,2013-09-13 22:04:00,
2013-09-13 18:05:00,68.2,46.6,29.34,West,279,3.0,5.0,46,0.00,,,1.37,meteohub,2013-09-13 22:05:00,
2013-09-13 18:07:00,68.2,46.6,29.34,SSW,196,3.0,5.0,46,0.00,,,1.37,meteohub,2013-09-13 22:07:00,
2013-09-13 18:11:00,68.0,46.4,29.34,West,261,0.0,5.0,46,0.00,,,1.37,meteohub,2013-09-13 22:11:00,
2013-09-13 18:12:00,68.0,46.4,29.34,West,261,0.0,6.0,46,0.00,,,1.37,meteohub,2013-09-13 22:12:00,
2013-09-13 18:13:00,68.0,46.4,29.34,West,261,0.0,6.0,46,0.00,,,1.37,meteohub,2013-09-13 22:13:00,
2013-09-13 18:15:00,67.8,46.9,29.34,WSW,258,0.0,6.0,47,0.00,,,1.37,meteohub,2013-09-13 22:15:00,
2013-09-13 18:16:00,67.8,46.9,29.34,West,267,0.0,6.0,47,0.00,,,1.37,meteohub,2013-09-13 22:16:00,
2013-09-13 18:17:00,67.8,46.9,29.34,West,267,0.0,6.0,47,0.00,,,1.37,meteohub,2013-09-13 22:17:00,
2013-09-13 18:18:00,67.8,46.9,29.34,West,267,0.0,6.0,47,0.00,,,1.37,meteohub,2013-09-13 22:18:00,
2013-09-13 18:19:00,67.8,46.9,29.34,West,267,0.0,6.0,47,0.00,,,1.37,meteohub,2013-09-13 22:19:00,
2013-09-13 18:23:00,67.8,47.5,29.34,West,267,0.0,6.0,48,0.00,,,1.37,meteohub,2013-09-13 22:23:00,
2013-09-13 18:24:00,67.8,47.5,29.34,SSW,194,0.0,6.0,48,0.00,,,1.37,meteohub,2013-09-13 22:24:00,
2013-09-13 18:27:00,67.8,47.5,29.34,SSW,194,0.0,6.0,48,0.00,,,1.37,meteohub,2013-09-13 22:27:00,
2013-09-13 18:30:00,67.8,48.0,29.36,SSW,199,0.0,0.0,49,0.00,,,1.37,meteohub,2013-09-13 22:30:00,
2013-09-13 18:31:00,67.8,48.0,29.36,SSW,199,0.0,0.0,49,0.00,,,1.37,meteohub,2013-09-13 22:31:00,
2013-09-13 18:33:00,67.8,48.0,29.36,SSW,194,0.0,0.0,49,0.00,,,1.37,meteohub,2013-09-13 22:33:00,
2013-09-13 18:35:00,67.8,48.0,29.36,SW,229,3.0,0.0,49,0.00,,,1.37,meteohub,2013-09-13 22:35:00,
2013-09-13 18:36:00,67.8,48.0,29.36,SW,229,0.0,0.0,49,0.00,,,1.37,meteohub,2013-09-13 22:36:00,
2013-09-13 18:38:00,67.8,48.0,29.36,SSE,164,0.0,0.0,49,0.00,,,1.37,meteohub,2013-09-13 22:38:00,
2013-09-13 18:39:00,67.6,47.8,29.36,SSE,164,0.0,4.0,49,0.00,,,1.37,meteohub,2013-09-13 22:39:00,
2013-09-13 18:42:00,67.6,47.3,29.36,SW,219,0.0,4.0,48,0.00,,,1.37,meteohub,2013-09-13 22:42:00,
2013-09-13 18:43:00,67.6,47.3,29.36,SW,219,0.0,4.0,48,0.00,,,1.37,meteohub,2013-09-13 22:43:00,
2013-09-13 18:44:00,67.6,47.3,29.36,SW,219,0.0,4.0,48,0.00,,,1.37,meteohub,2013-09-13 22:44:00,
2013-09-13 18:46:00,67.5,47.1,29.36,SW,219,0.0,4.0,48,0.00,,,1.37,meteohub,2013-09-13 22:46:00,
2013-09-13 18:49:00,67.5,47.1,29.36,SSW,209,0.0,5.0,48,0.00,,,1.37,meteohub,2013-09-13 22:49:00,
2013-09-13 18:50:00,67.5,47.1,29.36,SSW,209,0.0,5.0,48,0.00,,,1.37,meteohub,2013-09-13 22:50:00,
2013-09-13 18:52:00,67.3,46.9,29.36,SSW,209,0.0,5.0,48,0.00,,,1.37,meteohub,2013-09-13 22:52:00,
2013-09-13 18:54:00,67.3,46.9,29.36,West,262,0.0,5.0,48,0.00,,,1.37,meteohub,2013-09-13 22:54:00,
2013-09-13 18:55:00,67.3,46.9,29.36,SSW,204,0.0,5.0,48,0.00,,,1.37,meteohub,2013-09-13 22:55:00,
2013-09-13 18:56:00,67.3,47.5,29.36,SSW,204,0.0,5.0,49,0.00,,,1.37,meteohub,2013-09-13 22:56:00,
2013-09-13 18:58:00,67.1,47.3,29.36,South,186,0.0,4.0,49,0.00,,,1.37,meteohub,2013-09-13 22:58:00,
2013-09-13 19:00:00,67.1,47.3,29.36,West,259,2.0,4.0,49,0.00,,,1.37,meteohub,2013-09-13 23:00:00,
2013-09-13 19:02:00,66.9,47.1,29.36,WNW,284,0.0,4.0,49,0.00,,,1.37,meteohub,2013-09-13 23:02:00,
2013-09-13 19:03:00,66.9,47.1,29.36,WNW,284,0.0,4.0,49,0.00,,,1.37,meteohub,2013-09-13 23:03:00,
2013-09-13 19:04:00,66.9,47.1,29.36,WNW,284,0.0,4.0,49,0.00,,,1.37,meteohub,2013-09-13 23:04:00,
2013-09-13 19:05:00,66.7,46.9,29.36,South,191,0.0,4.0,49,0.00,,,1.37,meteohub,2013-09-13 23:05:00,
2013-09-13 19:07:00,66.7,46.9,29.36,SW,217,0.0,4.0,49,0.00,,,1.37,meteohub,2013-09-13 23:07:00,
2013-09-13 19:08:00,66.7,46.9,29.36,SW,217,0.0,4.0,49,0.00,,,1.37,meteohub,2013-09-13 23:08:00,
2013-09-13 19:09:00,66.6,46.8,29.36,SW,221,0.0,4.0,49,0.00,,,1.37,meteohub,2013-09-13 23:09:00,
2013-09-13 19:10:00,66.6,46.8,29.36,SW,221,0.0,4.0,49,0.00,,,1.37,meteohub,2013-09-13 23:10:00,
2013-09-13 19:13:00,66.4,46.6,29.36,SW,221,0.0,4.0,49,0.00,,,1.37,meteohub,2013-09-13 23:13:00,
2013-09-13 19:14:00,66.4,46.6,29.36,SW,221,0.0,4.0,49,0.00,,,1.37,meteohub,2013-09-13 23:14:00,
2013-09-13 19:15:00,66.4,46.6,29.39,SW,221,0.0,4.0,49,0.00,,,1.37,meteohub,2013-09-13 23:15:00,
2013-09-13 19:16:00,66.2,46.4,29.39,SW,221,0.0,4.0,49,0.00,,,1.37,meteohub,2013-09-13 23:16:00,
2013-09-13 19:17:00,66.2,46.4,29.39,SW,221,0.0,3.0,49,0.00,,,1.37,meteohub,2013-09-13 23:17:00,
2013-09-13 19:18:00,66.2,46.9,29.39,SW,221,0.0,3.0,50,0.00,,,1.37,meteohub,2013-09-13 23:18:00,
2013-09-13 19:20:00,66.0,46.8,29.39,SW,221,0.0,3.0,50,0.00,,,1.37,meteohub,2013-09-13 23:20:00,
2013-09-13 19:22:00,66.0,46.8,29.39,SW,221,0.0,0.0,50,0.00,,,1.37,meteohub,2013-09-13 23:22:00,
2013-09-13 19:24:00,66.0,47.3,29.39,SW,221,0.0,0.0,51,0.00,,,1.37,meteohub,2013-09-13 23:24:00,
2013-09-13 19:25:00,65.8,47.1,29.39,SW,221,0.0,0.0,51,0.00,,,1.37,meteohub,2013-09-13 23:25:00,
2013-09-13 19:26:00,65.8,47.1,29.39,SW,221,0.0,0.0,51,0.00,,,1.37,meteohub,2013-09-13 23:26:00,
2013-09-13 19:29:00,65.8,47.7,29.39,SW,221,0.0,0.0,52,0.00,,,1.37,meteohub,2013-09-13 23:29:00,
2013-09-13 19:30:00,65.8,47.7,29.39,SW,221,0.0,0.0,52,0.00,,,1.37,meteohub,2013-09-13 23:30:00,
2013-09-13 19:31:00,65.8,47.7,29.39,SW,221,0.0,0.0,52,0.00,,,1.37,meteohub,2013-09-13 23:31:00,
2013-09-13 19:34:00,65.7,47.5,29.39,SW,221,0.0,0.0,52,0.00,,,1.37,meteohub,2013-09-13 23:34:00,
2013-09-13 19:35:00,65.7,47.5,29.39,SW,221,0.0,0.0,52,0.00,,,1.37,meteohub,2013-09-13 23:35:00,
2013-09-13 19:36:00,65.7,47.5,29.39,SW,221,0.0,0.0,52,0.00,,,1.37,meteohub,2013-09-13 23:36:00,
2013-09-13 19:37:00,65.7,47.5,29.39,SW,221,0.0,0.0,52,0.00,,,1.37,meteohub,2013-09-13 23:37:00,
2013-09-13 19:38:00,65.7,47.5,29.39,SW,221,0.0,0.0,52,0.00,,,1.37,meteohub,2013-09-13 23:38:00,
2013-09-13 19:39:00,65.7,48.0,29.39,SW,221,0.0,0.0,53,0.00,,,1.37,meteohub,2013-09-13 23:39:00,
2013-09-13 19:41:00,65.5,47.8,29.39,WSW,244,0.0,0.0,53,0.00,,,1.37,meteohub,2013-09-13 23:41:00,
2013-09-13 19:43:00,65.5,47.8,29.39,West,263,0.0,0.0,53,0.00,,,1.37,meteohub,2013-09-13 23:43:00,
2013-09-13 19:44:00,65.5,48.4,29.39,West,263,0.0,0.0,54,0.00,,,1.37,meteohub,2013-09-13 23:44:00,
2013-09-13 19:46:00,65.5,48.4,29.39,West,263,0.0,0.0,54,0.00,,,1.37,meteohub,2013-09-13 23:46:00,
2013-09-13 19:47:00,65.5,48.4,29.39,West,263,0.0,0.0,54,0.00,,,1.37,meteohub,2013-09-13 23:47:00,
2013-09-13 19:49:00,65.3,47.7,29.39,West,263,0.0,5.0,53,0.00,,,1.37,meteohub,2013-09-13 23:49:00,
2013-09-13 19:52:00,65.1,48.0,29.39,West,277,0.0,5.0,54,0.00,,,1.37,meteohub,2013-09-13 23:52:00,
2013-09-13 19:54:00,65.1,47.5,29.39,West,277,0.0,5.0,53,0.00,,,1.37,meteohub,2013-09-13 23:54:00,
2013-09-13 19:57:00,64.9,47.8,29.39,West,277,0.0,0.0,54,0.00,,,1.37,meteohub,2013-09-13 23:57:00,
2013-09-13 19:58:00,64.9,47.8,29.39,West,274,0.0,0.0,54,0.00,,,1.37,meteohub,2013-09-13 23:58:00,
2013-09-13 20:00:00,64.9,47.8,29.39,West,274,0.0,0.0,54,0.00,,,1.37,meteohub,2013-09-14 00:00:00,
2013-09-13 20:01:00,64.8,47.7,29.39,West,273,0.0,0.0,54,0.00,,,1.37,meteohub,2013-09-14 00:01:00,
2013-09-13 20:02:00,64.8,47.7,29.39,West,273,0.0,0.0,54,0.00,,,1.37,meteohub,2013-09-14 00:02:00,
2013-09-13 20:03:00,64.8,47.7,29.39,West,273,0.0,0.0,54,0.00,,,1.37,meteohub,2013-09-14 00:03:00,
2013-09-13 20:04:00,64.8,47.7,29.39,West,273,0.0,0.0,54,0.00,,,1.37,meteohub,2013-09-14 00:04:00,
2013-09-13 20:06:00,64.6,47.5,29.39,West,273,0.0,0.0,54,0.00,,,1.37,meteohub,2013-09-14 00:06:00,
2013-09-13 20:07:00,64.6,47.5,29.39,West,273,0.0,0.0,54,0.00,,,1.37,meteohub,2013-09-14 00:07:00,
2013-09-13 20:08:00,64.6,47.5,29.39,West,273,0.0,0.0,54,0.00,,,1.37,meteohub,2013-09-14 00:08:00,
2013-09-13 20:09:00,64.6,47.5,29.39,West,273,0.0,0.0,54,0.00,,,1.37,meteohub,2013-09-14 00:09:00,
2013-09-13 20:12:00,64.4,47.5,29.39,West,273,0.0,0.0,54,0.00,,,0.00,meteohub,2013-09-14 00:12:00,
2013-09-13 20:14:00,64.4,47.5,29.42,West,273,0.0,0.0,54,0.00,,,0.00,meteohub,2013-09-14 00:14:00,
2013-09-13 20:15:00,64.4,47.5,29.42,West,273,0.0,0.0,54,0.00,,,0.00,meteohub,2013-09-14 00:15:00,
2013-09-13 20:17:00,64.4,47.5,29.42,West,273,0.0,0.0,54,0.00,,,0.00,meteohub,2013-09-14 00:17:00,
2013-09-13 20:18:00,64.4,47.5,29.42,West,273,0.0,0.0,54,0.00,,,0.00,meteohub,2013-09-14 00:18:00,
2013-09-13 20:19:00,64.2,47.7,29.42,West,273,0.0,0.0,55,0.00,,,0.00,meteohub,2013-09-14 00:19:00,
2013-09-13 20:20:00,64.2,47.7,29.42,West,273,0.0,0.0,55,0.00,,,0.00,meteohub,2013-09-14 00:20:00,
2013-09-13 20:24:00,64.2,47.7,29.42,West,273,0.0,0.0,55,0.00,,,0.00,meteohub,2013-09-14 00:24:00,
2013-09-13 20:25:00,64.0,47.5,29.42,West,274,0.0,0.0,55,0.00,,,0.00,meteohub,2013-09-14 00:25:00,
2013-09-13 20:27:00,64.0,48.0,29.42,South,187,0.0,0.0,56,0.00,,,0.00,meteohub,2013-09-14 00:27:00,
2013-09-13 20:29:00,64.0,48.0,29.42,South,187,0.0,0.0,56,0.00,,,0.00,meteohub,2013-09-14 00:29:00,
2013-09-13 20:30:00,64.0,48.0,29.42,South,187,0.0,0.0,56,0.00,,,0.00,meteohub,2013-09-14 00:30:00,
2013-09-13 20:31:00,63.9,47.8,29.42,South,187,0.0,0.0,56,0.00,,,0.00,meteohub,2013-09-14 00:31:00,
2013-09-13 20:33:00,63.9,47.8,29.42,South,187,0.0,0.0,56,0.00,,,0.00,meteohub,2013-09-14 00:33:00,
2013-09-13 20:34:00,63.9,47.8,29.42,South,187,0.0,0.0,56,0.00,,,0.00,meteohub,2013-09-14 00:34:00,
2013-09-13 20:36:00,63.9,47.3,29.42,South,187,0.0,0.0,55,0.00,,,0.00,meteohub,2013-09-14 00:36:00,
2013-09-13 20:37:00,63.9,47.3,29.42,South,187,0.0,0.0,55,0.00,,,0.00,meteohub,2013-09-14 00:37:00,
2013-09-13 20:39:00,63.9,47.8,29.42,SSW,193,0.0,0.0,56,0.00,,,0.00,meteohub,2013-09-14 00:39:00,
2013-09-13 20:40:00,63.7,47.7,29.42,SSW,192,0.0,0.0,56,0.00,,,0.00,meteohub,2013-09-14 00:40:00,
2013-09-13 20:41:00,63.7,47.7,29.42,SSW,192,0.0,0.0,56,0.00,,,0.00,meteohub,2013-09-14 00:41:00,
2013-09-13 20:42:00,63.7,47.7,29.42,SSW,192,0.0,4.0,56,0.00,,,0.00,meteohub,2013-09-14 00:42:00,
2013-09-13 20:43:00,63.7,47.3,29.42,SSW,192,0.0,4.0,55,0.00,,,0.00,meteohub,2013-09-14 00:43:00,
2013-09-13 20:45:00,63.7,47.3,29.42,SSW,192,0.0,4.0,55,0.00,,,0.00,meteohub,2013-09-14 00:45:00,
2013-09-13 20:47:00,63.9,47.8,29.42,SSW,192,0.0,4.0,56,0.00,,,0.00,meteohub,2013-09-14 00:47:00,
2013-09-13 20:51:00,63.7,47.7,29.42,SSW,193,0.0,4.0,56,0.00,,,0.00,meteohub,2013-09-14 00:51:00,
2013-09-13 20:53:00,63.7,47.7,29.42,SSW,192,0.0,4.0,56,0.00,,,0.00,meteohub,2013-09-14 00:53:00,
2013-09-13 20:55:00,63.7,47.7,29.42,SSW,192,0.0,4.0,56,0.00,,,0.00,meteohub,2013-09-14 00:55:00,
2013-09-13 20:57:00,63.7,47.7,29.42,SW,222,0.0,0.0,56,0.00,,,0.00,meteohub,2013-09-14 00:57:00,
2013-09-13 20:58:00,63.7,47.7,29.42,SW,222,0.0,0.0,56,0.00,,,0.00,meteohub,2013-09-14 00:58:00,
2013-09-13 21:00:00,63.7,47.7,29.42,SW,222,0.0,0.0,56,0.00,,,0.00,meteohub,2013-09-14 01:00:00,
2013-09-13 21:01:00,63.7,47.7,29.42,SW,222,0.0,0.0,56,0.00,,,0.00,meteohub,2013-09-14 01:01:00,
2013-09-13 21:03:00,63.7,47.7,29.42,SW,222,0.0,0.0,56,0.00,,,0.00,meteohub,2013-09-14 01:03:00,
2013-09-13 21:04:00,63.7,47.7,29.42,SW,222,0.0,0.0,56,0.00,,,0.00,meteohub,2013-09-14 01:04:00,
2013-09-13 21:07:00,63.5,47.5,29.42,SW,222,0.0,0.0,56,0.00,,,0.00,meteohub,2013-09-14 01:07:00,
2013-09-13 21:08:00,63.5,47.5,29.42,SW,222,0.0,0.0,56,0.00,,,0.00,meteohub,2013-09-14 01:08:00,
2013-09-13 21:12:00,63.5,47.5,29.42,SW,222,0.0,0.0,56,0.00,,,0.00,meteohub,2013-09-14 01:12:00,
2013-09-13 21:13:00,63.5,47.5,29.42,SW,222,0.0,0.0,56,0.00,,,0.00,meteohub,2013-09-14 01:13:00,
2013-09-13 21:14:00,63.5,47.5,29.42,SW,222,0.0,0.0,56,0.00,,,0.00,meteohub,2013-09-14 01:14:00,
2013-09-13 21:15:00,63.3,47.3,29.42,SW,222,0.0,0.0,56,0.00,,,0.00,meteohub,2013-09-14 01:15:00,
2013-09-13 21:17:00,63.3,47.3,29.42,SW,222,0.0,0.0,56,0.00,,,0.00,meteohub,2013-09-14 01:17:00,
2013-09-13 21:18:00,63.3,47.3,29.42,SW,222,0.0,0.0,56,0.00,,,0.00,meteohub,2013-09-14 01:18:00,
2013-09-13 21:21:00,63.1,47.1,29.42,SW,222,0.0,0.0,56,0.00,,,0.00,meteohub,2013-09-14 01:21:00,
2013-09-13 21:24:00,63.1,47.1,29.42,SW,222,0.0,0.0,56,0.00,,,0.00,meteohub,2013-09-14 01:24:00,
2013-09-13 21:25:00,63.1,47.1,29.42,SW,222,0.0,0.0,56,0.00,,,0.00,meteohub,2013-09-14 01:25:00,
2013-09-13 21:26:00,63.1,47.1,29.42,SW,222,0.0,0.0,56,0.00,,,0.00,meteohub,2013-09-14 01:26:00,
2013-09-13 21:27:00,63.0,46.9,29.42,SW,222,0.0,0.0,56,0.00,,,0.00,meteohub,2013-09-14 01:27:00,
2013-09-13 21:28:00,63.0,46.9,29.42,SW,222,0.0,0.0,56,0.00,,,0.00,meteohub,2013-09-14 01:28:00,
2013-09-13 21:29:00,63.0,46.9,29.42,SW,222,0.0,0.0,56,0.00,,,0.00,meteohub,2013-09-14 01:29:00,
2013-09-13 21:31:00,63.0,47.5,29.42,SW,222,0.0,0.0,57,0.00,,,0.00,meteohub,2013-09-14 01:31:00,
2013-09-13 21:33:00,63.0,47.5,29.42,SW,222,0.0,0.0,57,0.00,,,0.00,meteohub,2013-09-14 01:33:00,
2013-09-13 21:35:00,63.0,47.5,29.42,SW,222,0.0,0.0,57,0.00,,,0.00,meteohub,2013-09-14 01:35:00,
2013-09-13 21:36:00,62.8,47.3,29.42,SW,222,0.0,0.0,57,0.00,,,0.00,meteohub,2013-09-14 01:36:00,
2013-09-13 21:38:00,62.8,47.3,29.42,SW,222,0.0,0.0,57,0.00,,,0.00,meteohub,2013-09-14 01:38:00,
2013-09-13 21:40:00,62.8,47.3,29.42,SW,222,0.0,0.0,57,0.00,,,0.00,meteohub,2013-09-14 01:40:00,
2013-09-13 21:41:00,62.8,47.3,29.42,SW,222,0.0,0.0,57,0.00,,,0.00,meteohub,2013-09-14 01:41:00,
2013-09-13 21:42:00,62.8,47.3,29.42,SW,222,0.0,0.0,57,0.00,,,0.00,meteohub,2013-09-14 01:42:00,
2013-09-13 21:44:00,62.6,47.1,29.42,SW,222,0.0,0.0,57,0.00,,,0.00,meteohub,2013-09-14 01:44:00,
2013-09-13 21:46:00,62.6,47.7,29.42,SW,222,0.0,0.0,58,0.00,,,0.00,meteohub,2013-09-14 01:46:00,
2013-09-13 21:47:00,62.6,47.7,29.42,SW,222,0.0,0.0,58,0.00,,,0.00,meteohub,2013-09-14 01:47:00,
2013-09-13 21:50:00,62.4,47.5,29.42,SW,222,0.0,0.0,58,0.00,,,0.00,meteohub,2013-09-14 01:50:00,
2013-09-13 21:51:00,62.4,47.5,29.42,SW,222,0.0,0.0,58,0.00,,,0.00,meteohub,2013-09-14 01:51:00,
2013-09-13 21:52:00,62.4,47.8,29.42,SW,222,0.0,0.0,59,0.00,,,0.00,meteohub,2013-09-14 01:52:00,
2013-09-13 21:53:00,62.4,47.8,29.42,SW,222,0.0,0.0,59,0.00,,,0.00,meteohub,2013-09-14 01:53:00,
2013-09-13 21:55:00,62.4,47.8,29.42,SSW,213,0.0,0.0,59,0.00,,,0.00,meteohub,2013-09-14 01:55:00,
2013-09-13 21:56:00,62.2,47.7,29.42,SW,228,0.0,0.0,59,0.00,,,0.00,meteohub,2013-09-14 01:56:00,
2013-09-13 21:57:00,62.2,47.7,29.42,SW,228,0.0,0.0,59,0.00,,,0.00,meteohub,2013-09-14 01:57:00,
2013-09-13 21:59:00,62.4,47.8,29.42,SW,228,0.0,0.0,59,0.00,,,0.00,meteohub,2013-09-14 01:59:00,
2013-09-13 22:00:00,62.4,47.8,29.42,SW,228,0.0,0.0,59,0.00,,,0.00,meteohub,2013-09-14 02:00:00,
2013-09-13 22:01:00,62.4,47.8,29.42,SW,228,0.0,0.0,59,0.00,,,0.00,meteohub,2013-09-14 02:01:00,
2013-09-13 22:03:00,62.4,48.4,29.42,SW,221,0.0,0.0,60,0.00,,,0.00,meteohub,2013-09-14 02:03:00,
2013-09-13 22:05:00,62.4,48.4,29.42,SW,234,0.0,0.0,60,0.00,,,0.00,meteohub,2013-09-14 02:05:00,
2013-09-13 22:06:00,62.4,48.4,29.42,SW,226,2.0,0.0,60,0.00,,,0.00,meteohub,2013-09-14 02:06:00,
2013-09-13 22:07:00,62.4,48.4,29.42,SW,226,0.0,0.0,60,0.00,,,0.00,meteohub,2013-09-14 02:07:00,
2013-09-13 22:08:00,62.4,48.4,29.42,SW,226,0.0,0.0,60,0.00,,,0.00,meteohub,2013-09-14 02:08:00,
2013-09-13 22:09:00,62.4,48.4,29.42,SW,226,0.0,0.0,60,0.00,,,0.00,meteohub,2013-09-14 02:09:00,
2013-09-13 22:10:00,62.4,48.4,29.42,WSW,248,0.0,0.0,60,0.00,,,0.00,meteohub,2013-09-14 02:10:00,
2013-09-13 22:11:00,62.4,48.4,29.42,WSW,252,0.0,0.0,60,0.00,,,0.00,meteohub,2013-09-14 02:11:00,
2013-09-13 22:13:00,62.4,48.4,29.42,SW,232,0.0,4.0,60,0.00,,,0.00,meteohub,2013-09-14 02:13:00,
2013-09-13 22:16:00,62.4,47.8,29.42,NW,316,0.0,4.0,59,0.00,,,0.00,meteohub,2013-09-14 02:16:00,
2013-09-13 22:17:00,62.4,47.8,29.42,NW,309,0.0,5.0,59,0.00,,,0.00,meteohub,2013-09-14 02:17:00,
2013-09-13 22:18:00,62.2,47.3,29.42,SSE,166,0.0,5.0,58,0.00,,,0.00,meteohub,2013-09-14 02:18:00,
2013-09-13 22:19:00,62.2,47.3,29.42,WSW,243,0.0,5.0,58,0.00,,,0.00,meteohub,2013-09-14 02:19:00,
2013-09-13 22:21:00,62.2,47.3,29.42,WSW,249,0.0,5.0,58,0.00,,,0.00,meteohub,2013-09-14 02:21:00,
2013-09-13 22:22:00,62.2,47.3,29.42,WSW,248,0.0,5.0,58,0.00,,,0.00,meteohub,2013-09-14 02:22:00,
2013-09-13 22:23:00,62.2,47.3,29.42,WSW,248,0.0,5.0,58,0.00,,,0.00,meteohub,2013-09-14 02:23:00,
2013-09-13 22:24:00,62.2,47.3,29.42,WSW,248,0.0,5.0,58,0.00,,,0.00,meteohub,2013-09-14 02:24:00,
2013-09-13 22:27:00,62.2,46.8,29.42,WSW,249,0.0,5.0,57,0.00,,,0.00,meteohub,2013-09-14 02:27:00,
2013-09-13 22:28:00,62.1,46.6,29.42,WSW,248,0.0,5.0,57,0.00,,,0.00,meteohub,2013-09-14 02:28:00,
2013-09-13 22:29:00,62.1,46.6,29.45,WSW,248,0.0,5.0,57,0.00,,,0.00,meteohub,2013-09-14 02:29:00,
2013-09-13 22:34:00,62.1,46.6,29.45,South,189,0.0,5.0,57,0.00,,,0.00,meteohub,2013-09-14 02:34:00,
2013-09-13 22:35:00,62.1,46.6,29.45,SW,216,0.0,5.0,57,0.00,,,0.00,meteohub,2013-09-14 02:35:00,
2013-09-13 22:38:00,61.9,46.0,29.45,West,263,0.0,4.0,56,0.00,,,0.00,meteohub,2013-09-14 02:38:00,
2013-09-13 22:39:00,61.9,46.0,29.45,West,263,0.0,4.0,56,0.00,,,0.00,meteohub,2013-09-14 02:39:00,
2013-09-13 22:40:00,61.9,46.0,29.45,West,263,0.0,4.0,56,0.00,,,0.00,meteohub,2013-09-14 02:40:00,
2013-09-13 22:41:00,61.9,46.0,29.45,West,263,0.0,4.0,56,0.00,,,0.00,meteohub,2013-09-14 02:41:00,
2013-09-13 22:42:00,61.9,46.0,29.45,West,263,0.0,4.0,56,0.00,,,0.00,meteohub,2013-09-14 02:42:00,
2013-09-13 22:45:00,61.9,46.0,29.45,SW,214,0.0,4.0,56,0.00,,,0.00,meteohub,2013-09-14 02:45:00,
2013-09-13 22:46:00,61.9,46.0,29.45,SW,214,0.0,4.0,56,0.00,,,0.00,meteohub,2013-09-14 02:46:00,
2013-09-13 22:49:00,61.9,46.4,29.45,SW,214,0.0,4.0,57,0.00,,,0.00,meteohub,2013-09-14 02:49:00,
2013-09-13 22:50:00,61.9,46.4,29.45,SW,218,0.0,4.0,57,0.00,,,0.00,meteohub,2013-09-14 02:50:00,
2013-09-13 22:51:00,61.9,46.0,29.45,SSW,211,0.0,4.0,56,0.00,,,0.00,meteohub,2013-09-14 02:51:00,
2013-09-13 22:52:00,61.7,45.9,29.45,SSW,211,0.0,0.0,56,0.00,,,0.00,meteohub,2013-09-14 02:52:00,
2013-09-13 22:55:00,61.7,45.9,29.45,SSW,211,0.0,0.0,56,0.00,,,0.00,meteohub,2013-09-14 02:55:00,
2013-09-13 22:56:00,61.7,45.9,29.45,West,261,0.0,0.0,56,0.00,,,0.00,meteohub,2013-09-14 02:56:00,
2013-09-13 22:57:00,61.7,45.9,29.45,West,261,0.0,0.0,56,0.00,,,0.00,meteohub,2013-09-14 02:57:00,
2013-09-13 22:58:00,61.7,45.9,29.45,West,261,0.0,0.0,56,0.00,,,0.00,meteohub,2013-09-14 02:58:00,
2013-09-13 23:01:00,61.7,45.9,29.45,West,261,0.0,0.0,56,0.00,,,0.00,meteohub,2013-09-14 03:01:00,
2013-09-13 23:02:00,61.7,45.9,29.45,West,261,0.0,0.0,56,0.00,,,0.00,meteohub,2013-09-14 03:02:00,
2013-09-13 23:03:00,61.7,45.9,29.45,West,261,0.0,0.0,56,0.00,,,0.00,meteohub,2013-09-14 03:03:00,
2013-09-13 23:04:00,61.7,45.9,29.45,West,261,0.0,0.0,56,0.00,,,0.00,meteohub,2013-09-14 03:04:00,
2013-09-13 23:07:00,61.7,45.9,29.45,WSW,248,0.0,0.0,56,0.00,,,0.00,meteohub,2013-09-14 03:07:00,
2013-09-13 23:08:00,61.7,45.9,29.45,WSW,248,0.0,0.0,56,0.00,,,0.00,meteohub,2013-09-14 03:08:00,
2013-09-13 23:09:00,61.5,45.7,29.45,WSW,245,0.0,0.0,56,0.00,,,0.00,meteohub,2013-09-14 03:09:00,
2013-09-13 23:10:00,61.5,45.7,29.45,WSW,245,0.0,0.0,56,0.00,,,0.00,meteohub,2013-09-14 03:10:00,
2013-09-13 23:14:00,61.5,45.7,29.45,WSW,245,0.0,0.0,56,0.00,,,0.00,meteohub,2013-09-14 03:14:00,
2013-09-13 23:17:00,61.5,45.7,29.45,WSW,245,0.0,0.0,56,0.00,,,0.00,meteohub,2013-09-14 03:17:00,
2013-09-13 23:18:00,61.5,45.7,29.45,SW,230,0.0,0.0,56,0.00,,,0.00,meteohub,2013-09-14 03:18:00,
2013-09-13 23:19:00,61.5,45.7,29.45,SW,230,0.0,0.0,56,0.00,,,0.00,meteohub,2013-09-14 03:19:00,
2013-09-13 23:20:00,61.5,45.7,29.45,SW,230,0.0,0.0,56,0.00,,,0.00,meteohub,2013-09-14 03:20:00,
2013-09-13 23:24:00,61.5,45.7,29.45,SW,215,0.0,0.0,56,0.00,,,0.00,meteohub,2013-09-14 03:24:00,
2013-09-13 23:25:00,61.5,45.7,29.45,SW,215,0.0,0.0,56,0.00,,,0.00,meteohub,2013-09-14 03:25:00,
2013-09-13 23:26:00,61.5,45.7,29.45,SW,215,0.0,0.0,56,0.00,,,0.00,meteohub,2013-09-14 03:26:00,
2013-09-13 23:27:00,61.5,45.7,29.45,WNW,296,0.0,0.0,56,0.00,,,0.00,meteohub,2013-09-14 03:27:00,
2013-09-13 23:28:00,61.5,45.7,29.45,WSW,245,0.0,0.0,56,0.00,,,0.00,meteohub,2013-09-14 03:28:00,
2013-09-13 23:31:00,61.5,45.7,29.45,SSW,192,0.0,0.0,56,0.00,,,0.00,meteohub,2013-09-14 03:31:00,
2013-09-13 23:32:00,61.5,45.7,29.45,SSW,192,0.0,2.0,56,0.00,,,0.00,meteohub,2013-09-14 03:32:00,
2013-09-13 23:33:00,61.5,45.7,29.45,West,259,0.0,2.0,56,0.00,,,0.00,meteohub,2013-09-14 03:33:00,
2013-09-13 23:37:00,61.5,45.1,29.45,South,188,0.0,2.0,55,0.00,,,0.00,meteohub,2013-09-14 03:37:00,
2013-09-13 23:38:00,61.5,45.1,29.45,South,188,0.0,2.0,55,0.00,,,0.00,meteohub,2013-09-14 03:38:00,
2013-09-13 23:39:00,61.5,45.1,29.45,South,185,0.0,2.0,55,0.00,,,0.00,meteohub,2013-09-14 03:39:00,
2013-09-13 23:41:00,61.5,45.1,29.45,South,184,0.0,2.0,55,0.00,,,0.00,meteohub,2013-09-14 03:41:00,
2013-09-13 23:42:00,61.5,45.1,29.45,South,180,0.0,3.0,55,0.00,,,0.00,meteohub,2013-09-14 03:42:00,
2013-09-13 23:43:00,61.5,45.1,29.45,South,180,0.0,3.0,55,0.00,,,0.00,meteohub,2013-09-14 03:43:00,
2013-09-13 23:45:00,61.5,44.8,29.45,South,180,0.0,3.0,54,0.00,,,0.00,meteohub,2013-09-14 03:45:00,
2013-09-13 23:48:00,61.5,44.8,29.45,SW,235,0.0,3.0,54,0.00,,,0.00,meteohub,2013-09-14 03:48:00,
2013-09-13 23:49:00,61.5,44.8,29.45,SW,220,0.0,3.0,54,0.00,,,0.00,meteohub,2013-09-14 03:49:00,
2013-09-13 23:50:00,61.5,44.8,29.45,SSW,212,0.0,3.0,54,0.00,,,0.00,meteohub,2013-09-14 03:50:00,
2013-09-13 23:55:00,61.3,44.1,29.45,SSW,213,0.0,4.0,53,0.00,,,0.00,meteohub,2013-09-14 03:55:00,
2013-09-13 23:57:00,61.3,44.1,29.45,South,174,0.0,4.0,53,0.00,,,0.00,meteohub,2013-09-14 03:57:00,
2013-09-13 23:59:00,61.3,44.1,29.45,South,183,0.0,4.0,53,0.00,,,0.00,meteohub,2013-09-14 03:59:00,